Time,TemperatureF,DewpointF,PressureIn,WindDirection,WindDirectionDegrees,WindSpeedMPH,WindSpeedGustMPH,Humidity,HourlyPrecipIn,Conditions,Clouds,dailyrainin,SoftwareType,DateUTC
2013-11-14 00:00:00,31.0,21.0,30.50,SSW,208,0.0,1.0,66,0.00,,,0.00,Wunderground v.1.15,2013-11-14 05:00:00,
2013-11-14 00:01:00,31.0,21.0,30.50,SSW,208,0.0,1.0,66,0.00,,,0.00,Wunderground v.1.15,2013-11-14 05:01:00,
2013-11-14 00:02:00,31.0,21.0,30.50,SSW,208,0.0,1.0,66,0.00,,,0.00,Wunderground v.1.15,2013-11-14 05:02:00,
2013-11-14 00:05:00,30.9,20.9,30.50,SSW,206,0.0,3.0,66,0.00,,,0.00,Wunderground v.1.15,2013-11-14 05:05:00,
2013-11-14 00:08:00,30.9,20.9,30.50,SSW,205,0.0,3.0,66,0.00,,,0.00,Wunderground v.1.15,2013-11-14 05:08:00,
2013-11-14 00:10:00,30.9,20.9,30.50,SSW,205,0.0,1.0,66,0.00,,,0.00,Wunderground v.1.15,2013-11-14 05:10:00,
2013-11-14 00:13:00,30.8,20.8,30.50,SSW,205,0.0,1.0,66,0.00,,,0.00,Wunderground v.1.15,2013-11-14 05:13:00,
2013-11-14 00:14:00,30.8,20.8,30.50,SSW,205,0.0,1.0,66,0.00,,,0.00,Wunderground v.1.15,2013-11-14 05:14:00,
2013-11-14 00:15:00,30.7,20.7,30.50,SSW,205,0.0,1.0,66,0.00,,,0.00,Wunderground v.1.15,2013-11-14 05:15:00,
2013-11-14 00:18:00,30.6,20.6,30.50,SSW,205,0.0,1.0,66,0.00,,,0.00,Wunderground v.1.15,2013-11-14 05:18:00,
2013-11-14 00:19:00,30.6,20.6,30.50,SSW,205,0.0,1.0,66,0.00,,,0.00,Wunderground v.1.15,2013-11-14 05:19:00,
2013-11-14 00:20:00,30.6,20.6,30.50,SSW,205,0.0,1.0,66,0.00,,,0.00,Wunderground v.1.15,2013-11-14 05:20:00,
2013-11-14 00:23:00,30.6,20.9,30.50,SSW,205,0.0,1.0,67,0.00,,,0.00,Wunderground v.1.15,2013-11-14 05:23:00,
2013-11-14 00:26:00,30.5,20.8,30.50,SSW,205,0.0,1.0,67,0.00,,,0.00,Wunderground v.1.15,2013-11-14 05:26:00,
2013-11-14 00:28:00,30.5,20.8,30.50,SSW,205,0.0,1.0,67,0.00,,,0.00,Wunderground v.1.15,2013-11-14 05:28:00,
2013-11-14 00:31:00,30.5,20.8,30.50,SSW,205,0.0,1.0,67,0.00,,,0.00,Wunderground v.1.15,2013-11-14 05:31:00,
2013-11-14 00:32:00,30.4,20.7,30.50,SSW,205,0.0,1.0,67,0.00,,,0.00,Wunderground v.1.15,2013-11-14 05:32:00,
2013-11-14 00:34:00,30.4,20.7,30.50,SW,225,0.0,1.0,67,0.00,,,0.00,Wunderground v.1.15,2013-11-14 05:34:00,
2013-11-14 00:35:00,30.4,20.7,30.50,SW,225,0.0,1.0,67,0.00,,,0.00,Wunderground v.1.15,2013-11-14 05:35:00,
2013-11-14 00:36:00,30.4,20.7,30.50,SW,225,0.0,1.0,67,0.00,,,0.00,Wunderground v.1.15,2013-11-14 05:36:00,
2013-11-14 00:38:00,30.3,21.0,30.50,SW,225,0.0,1.0,68,0.00,,,0.00,Wunderground v.1.15,2013-11-14 05:38:00,
2013-11-14 00:42:00,30.3,21.0,30.49,SW,225,0.0,1.0,68,0.00,,,0.00,Wunderground v.1.15,2013-11-14 05:42:00,
2013-11-14 00:43:00,30.3,21.0,30.49,SW,225,0.0,1.0,68,0.00,,,0.00,Wunderground v.1.15,2013-11-14 05:43:00,
2013-11-14 00:45:00,30.2,20.9,30.49,SW,225,0.0,1.0,68,0.00,,,0.00,Wunderground v.1.15,2013-11-14 05:45:00,
2013-11-14 00:46:00,30.3,21.0,30.49,SW,225,0.0,1.0,68,0.00,,,0.00,Wunderground v.1.15,2013-11-14 05:46:00,
2013-11-14 00:47:00,30.3,21.0,30.49,SW,225,0.0,1.0,68,0.00,,,0.00,Wunderground v.1.15,2013-11-14 05:47:00,
2013-11-14 00:49:00,30.3,21.0,30.49,SW,225,0.0,1.0,68,0.00,,,0.00,Wunderground v.1.15,2013-11-14 05:49:00,
2013-11-14 00:51:00,30.3,21.0,30.49,SW,225,0.0,1.0,68,0.00,,,0.00,Wunderground v.1.15,2013-11-14 05:51:00,
2013-11-14 00:52:00,30.3,21.0,30.49,SW,225,0.0,1.0,68,0.00,,,0.00,Wunderground v.1.15,2013-11-14 05:52:00,
2013-11-14 00:54:00,30.3,21.0,30.49,SW,225,0.0,1.0,68,0.00,,,0.00,Wunderground v.1.15,2013-11-14 05:54:00,
2013-11-14 00:56:00,30.3,20.6,30.49,SW,225,0.0,1.0,67,0.00,,,0.00,Wunderground v.1.15,2013-11-14 05:56:00,
2013-11-14 00:58:00,30.3,20.6,30.49,SW,225,0.0,1.0,67,0.00,,,0.00,Wunderground v.1.15,2013-11-14 05:58:00,
2013-11-14 00:59:00,30.3,20.6,30.49,SW,225,0.0,1.0,67,0.00,,,0.00,Wunderground v.1.15,2013-11-14 05:59:00,
2013-11-14 01:02:00,30.3,20.6,30.49,SW,225,0.0,1.0,67,0.00,,,0.00,Wunderground v.1.15,2013-11-14 06:02:00,
2013-11-14 01:03:00,30.3,20.6,30.49,SW,225,0.0,1.0,67,0.00,,,0.00,Wunderground v.1.15,2013-11-14 06:03:00,
2013-11-14 01:06:00,30.3,20.6,30.48,SW,225,0.0,1.0,67,0.00,,,0.00,Wunderground v.1.15,2013-11-14 06:06:00,
2013-11-14 01:08:00,30.2,20.6,30.48,SW,225,0.0,1.0,67,0.00,,,0.00,Wunderground v.1.15,2013-11-14 06:08:00,
2013-11-14 01:09:00,30.2,20.6,30.48,SW,225,0.0,1.0,67,0.00,,,0.00,Wunderground v.1.15,2013-11-14 06:09:00,
2013-11-14 01:14:00,30.1,20.5,30.49,SW,225,0.0,1.0,67,0.00,,,0.00,Wunderground v.1.15,2013-11-14 06:14:00,
2013-11-14 01:16:00,30.1,20.5,30.48,SW,225,0.0,1.0,67,0.00,,,0.00,Wunderground v.1.15,2013-11-14 06:16:00,
2013-11-14 01:18:00,30.0,20.4,30.48,SW,225,0.0,1.0,67,0.00,,,0.00,Wunderground v.1.15,2013-11-14 06:18:00,
2013-11-14 01:20:00,30.0,20.4,30.48,SW,225,0.0,1.0,67,0.00,,,0.00,Wunderground v.1.15,2013-11-14 06:20:00,
2013-11-14 01:21:00,29.9,20.3,30.49,SW,225,0.0,1.0,67,0.00,,,0.00,Wunderground v.1.15,2013-11-14 06:21:00,
2013-11-14 01:23:00,29.9,20.3,30.49,SW,225,0.0,1.0,67,0.00,,,0.00,Wunderground v.1.15,2013-11-14 06:23:00,
2013-11-14 01:25:00,29.8,20.2,30.49,SW,225,0.0,1.0,67,0.00,,,0.00,Wunderground v.1.15,2013-11-14 06:25:00,
2013-11-14 01:28:00,29.8,20.2,30.48,SW,225,0.0,1.0,67,0.00,,,0.00,Wunderground v.1.15,2013-11-14 06:28:00,
2013-11-14 01:30:00,29.7,20.1,30.48,SW,225,0.0,1.0,67,0.00,,,0.00,Wunderground v.1.15,2013-11-14 06:30:00,
2013-11-14 01:32:00,29.7,20.1,30.48,SW,225,0.0,1.0,67,0.00,,,0.00,Wunderground v.1.15,2013-11-14 06:32:00,
2013-11-14 01:33:00,29.7,20.1,30.48,SW,225,0.0,1.0,67,0.00,,,0.00,Wunderground v.1.15,2013-11-14 06:33:00,
2013-11-14 01:36:00,29.6,20.0,30.48,SW,225,0.0,1.0,67,0.00,,,0.00,Wunderground v.1.15,2013-11-14 06:36:00,
2013-11-14 01:39:00,29.5,19.9,30.48,SW,225,0.0,0.0,67,0.00,,,0.00,Wunderground v.1.15,2013-11-14 06:39:00,
2013-11-14 01:40:00,29.5,19.9,30.48,SW,225,0.0,0.0,67,0.00,,,0.00,Wunderground v.1.15,2013-11-14 06:40:00,
2013-11-14 01:42:00,29.4,19.8,30.48,SW,225,0.0,0.0,67,0.00,,,0.00,Wunderground v.1.15,2013-11-14 06:42:00,
2013-11-14 01:43:00,29.4,19.8,30.48,SW,225,0.0,0.0,67,0.00,,,0.00,Wunderground v.1.15,2013-11-14 06:43:00,
2013-11-14 01:46:00,29.2,19.6,30.48,SW,225,0.0,0.0,67,0.00,,,0.00,Wunderground v.1.15,2013-11-14 06:46:00,
2013-11-14 01:47:00,29.2,19.6,30.48,SW,225,0.0,0.0,67,0.00,,,0.00,Wunderground v.1.15,2013-11-14 06:47:00,
2013-11-14 01:49:00,29.2,19.6,30.48,SW,225,0.0,0.0,67,0.00,,,0.00,Wunderground v.1.15,2013-11-14 06:49:00,
2013-11-14 01:52:00,29.2,19.9,30.48,SW,225,0.0,0.0,68,0.00,,,0.00,Wunderground v.1.15,2013-11-14 06:52:00,
2013-11-14 01:54:00,29.2,19.9,30.48,SSW,206,0.0,0.0,68,0.00,,,0.00,Wunderground v.1.15,2013-11-14 06:54:00,
2013-11-14 01:56:00,29.1,19.8,30.48,SW,215,0.0,2.0,68,0.00,,,0.00,Wunderground v.1.15,2013-11-14 06:56:00,
2013-11-14 01:58:00,29.1,19.8,30.48,SW,227,0.0,2.0,68,0.00,,,0.00,Wunderground v.1.15,2013-11-14 06:58:00,
2013-11-14 02:01:00,29.1,20.2,30.48,South,188,1.0,1.0,69,0.00,,,0.00,Wunderground v.1.15,2013-11-14 07:01:00,
2013-11-14 02:06:00,29.0,20.1,30.48,South,190,1.0,1.0,69,0.00,,,0.00,Wunderground v.1.15,2013-11-14 07:06:00,
2013-11-14 02:08:00,29.0,20.1,30.48,South,190,0.0,1.0,69,0.00,,,0.00,Wunderground v.1.15,2013-11-14 07:08:00,
2013-11-14 02:09:00,29.0,20.1,30.48,South,190,0.0,0.0,69,0.00,,,0.00,Wunderground v.1.15,2013-11-14 07:09:00,
2013-11-14 02:10:00,29.0,20.1,30.48,South,190,0.0,0.0,69,0.00,,,0.00,Wunderground v.1.15,2013-11-14 07:10:00,
2013-11-14 02:15:00,29.1,20.2,30.47,South,190,0.0,0.0,69,0.00,,,0.00,Wunderground v.1.15,2013-11-14 07:15:00,
2013-11-14 02:16:00,29.1,20.2,30.47,South,190,0.0,0.0,69,0.00,,,0.00,Wunderground v.1.15,2013-11-14 07:16:00,
2013-11-14 02:20:00,29.2,19.9,30.47,South,190,0.0,0.0,68,0.00,,,0.00,Wunderground v.1.15,2013-11-14 07:20:00,
2013-11-14 02:21:00,29.2,19.9,30.47,South,190,0.0,0.0,68,0.00,,,0.00,Wunderground v.1.15,2013-11-14 07:21:00,
2013-11-14 02:28:00,29.1,19.8,30.47,South,190,0.0,0.0,68,0.00,,,0.00,Wunderground v.1.15,2013-11-14 07:28:00,
2013-11-14 02:29:00,29.1,19.8,30.47,South,190,0.0,0.0,68,0.00,,,0.00,Wunderground v.1.15,2013-11-14 07:29:00,
2013-11-14 02:30:00,29.1,19.8,30.47,South,190,0.0,0.0,68,0.00,,,0.00,Wunderground v.1.15,2013-11-14 07:30:00,
2013-11-14 02:31:00,29.1,19.8,30.47,South,190,0.0,0.0,68,0.00,,,0.00,Wunderground v.1.15,2013-11-14 07:31:00,
2013-11-14 02:37:00,29.0,19.8,30.47,South,190,0.0,0.0,68,0.00,,,0.00,Wunderground v.1.15,2013-11-14 07:37:00,
2013-11-14 02:38:00,29.0,19.8,30.47,South,190,0.0,0.0,68,0.00,,,0.00,Wunderground v.1.15,2013-11-14 07:38:00,
2013-11-14 02:40:00,29.0,19.8,30.48,South,190,0.0,0.0,68,0.00,,,0.00,Wunderground v.1.15,2013-11-14 07:40:00,
2013-11-14 02:44:00,28.9,19.7,30.48,South,190,0.0,0.0,68,0.00,,,0.00,Wunderground v.1.15,2013-11-14 07:44:00,
2013-11-14 02:45:00,28.9,19.7,30.48,South,190,0.0,0.0,68,0.00,,,0.00,Wunderground v.1.15,2013-11-14 07:45:00,
2013-11-14 02:46:00,28.9,19.7,30.48,South,190,0.0,0.0,68,0.00,,,0.00,Wunderground v.1.15,2013-11-14 07:46:00,
2013-11-14 02:49:00,28.9,19.7,30.48,South,190,0.0,0.0,68,0.00,,,0.00,Wunderground v.1.15,2013-11-14 07:49:00,
2013-11-14 02:53:00,28.8,19.6,30.48,South,190,0.0,0.0,68,0.00,,,0.00,Wunderground v.1.15,2013-11-14 07:53:00,
2013-11-14 02:54:00,28.8,19.9,30.48,South,190,0.0,0.0,69,0.00,,,0.00,Wunderground v.1.15,2013-11-14 07:54:00,
2013-11-14 02:56:00,28.7,19.8,30.47,South,190,0.0,0.0,69,0.00,,,0.00,Wunderground v.1.15,2013-11-14 07:56:00,
2013-11-14 03:01:00,28.8,20.2,30.47,South,190,0.0,2.0,70,0.00,,,0.00,Wunderground v.1.15,2013-11-14 08:01:00,
2013-11-14 03:03:00,28.9,20.3,30.47,South,190,0.0,2.0,70,0.00,,,0.00,Wunderground v.1.15,2013-11-14 08:03:00,
2013-11-14 03:05:00,29.0,20.8,30.47,South,190,0.0,2.0,71,0.00,,,0.00,Wunderground v.1.15,2013-11-14 08:05:00,
2013-11-14 03:07:00,29.1,20.9,30.47,South,190,1.0,2.0,71,0.00,,,0.00,Wunderground v.1.15,2013-11-14 08:07:00,
2013-11-14 03:08:00,29.2,21.0,30.47,South,190,1.0,2.0,71,0.00,,,0.00,Wunderground v.1.15,2013-11-14 08:08:00,
2013-11-14 03:10:00,29.3,21.1,30.47,South,190,1.0,1.0,71,0.00,,,0.00,Wunderground v.1.15,2013-11-14 08:10:00,
2013-11-14 03:14:00,29.4,21.2,30.47,South,190,1.0,1.0,71,0.00,,,0.00,Wunderground v.1.15,2013-11-14 08:14:00,
2013-11-14 03:17:00,29.4,21.2,30.47,SW,216,1.0,2.0,71,0.00,,,0.00,Wunderground v.1.15,2013-11-14 08:17:00,
2013-11-14 03:18:00,29.4,21.2,30.47,SW,216,1.0,1.0,71,0.00,,,0.00,Wunderground v.1.15,2013-11-14 08:18:00,
2013-11-14 03:20:00,29.4,20.8,30.47,SW,216,1.0,1.0,70,0.00,,,0.00,Wunderground v.1.15,2013-11-14 08:20:00,
2013-11-14 03:21:00,29.4,20.8,30.47,SW,216,1.0,1.0,70,0.00,,,0.00,Wunderground v.1.15,2013-11-14 08:21:00,
2013-11-14 03:24:00,29.4,20.8,30.47,SW,216,0.0,1.0,70,0.00,,,0.00,Wunderground v.1.15,2013-11-14 08:24:00,
2013-11-14 03:25:00,29.4,20.8,30.47,SW,216,0.0,1.0,70,0.00,,,0.00,Wunderground v.1.15,2013-11-14 08:25:00,
2013-11-14 03:27:00,29.4,20.8,30.47,SW,216,0.0,1.0,70,0.00,,,0.00,Wunderground v.1.15,2013-11-14 08:27:00,
2013-11-14 03:31:00,29.3,20.7,30.47,SW,216,0.0,0.0,70,0.00,,,0.00,Wunderground v.1.15,2013-11-14 08:31:00,
2013-11-14 03:32:00,29.2,20.6,30.47,SW,216,0.0,0.0,70,0.00,,,0.00,Wunderground v.1.15,2013-11-14 08:32:00,
2013-11-14 03:33:00,29.2,20.6,30.47,SW,216,0.0,0.0,70,0.00,,,0.00,Wunderground v.1.15,2013-11-14 08:33:00,
2013-11-14 03:36:00,29.1,20.5,30.47,SW,216,0.0,0.0,70,0.00,,,0.00,Wunderground v.1.15,2013-11-14 08:36:00,
2013-11-14 03:41:00,29.1,20.5,30.47,SW,216,0.0,3.0,70,0.00,,,0.00,Wunderground v.1.15,2013-11-14 08:41:00,
2013-11-14 03:43:00,29.1,20.5,30.47,SW,216,0.0,3.0,70,0.00,,,0.00,Wunderground v.1.15,2013-11-14 08:43:00,
2013-11-14 03:46:00,29.1,20.5,30.47,SW,216,0.0,3.0,70,0.00,,,0.00,Wunderground v.1.15,2013-11-14 08:46:00,
2013-11-14 03:49:00,29.1,20.2,30.47,SW,216,0.0,3.0,69,0.00,,,0.00,Wunderground v.1.15,2013-11-14 08:49:00,
2013-11-14 03:51:00,29.1,20.2,30.47,SW,216,0.0,3.0,69,0.00,,,0.00,Wunderground v.1.15,2013-11-14 08:51:00,
2013-11-14 03:52:00,29.0,20.1,30.47,SW,216,0.0,3.0,69,0.00,,,0.00,Wunderground v.1.15,2013-11-14 08:52:00,
2013-11-14 03:57:00,28.9,20.0,30.47,SW,216,0.0,3.0,69,0.00,,,0.00,Wunderground v.1.15,2013-11-14 08:57:00,
2013-11-14 03:58:00,28.9,20.0,30.47,SW,216,0.0,3.0,69,0.00,,,0.00,Wunderground v.1.15,2013-11-14 08:58:00,
2013-11-14 03:59:00,28.9,20.0,30.47,SW,216,0.0,3.0,69,0.00,,,0.00,Wunderground v.1.15,2013-11-14 08:59:00,
2013-11-14 04:02:00,28.8,19.9,30.46,SW,216,0.0,3.0,69,0.00,,,0.00,Wunderground v.1.15,2013-11-14 09:02:00,
2013-11-14 04:03:00,28.7,20.1,30.46,SW,216,0.0,3.0,70,0.00,,,0.00,Wunderground v.1.15,2013-11-14 09:03:00,
2013-11-14 04:05:00,28.7,20.1,30.46,SW,216,0.0,3.0,70,0.00,,,0.00,Wunderground v.1.15,2013-11-14 09:05:00,
2013-11-14 04:07:00,28.7,20.1,30.46,SW,216,0.0,3.0,70,0.00,,,0.00,Wunderground v.1.15,2013-11-14 09:07:00,
2013-11-14 04:08:00,28.7,20.1,30.47,SW,216,0.0,3.0,70,0.00,,,0.00,Wunderground v.1.15,2013-11-14 09:08:00,
2013-11-14 04:11:00,28.7,20.1,30.47,SW,216,0.0,3.0,70,0.00,,,0.00,Wunderground v.1.15,2013-11-14 09:11:00,
2013-11-14 04:12:00,28.7,20.1,30.46,SW,216,0.0,3.0,70,0.00,,,0.00,Wunderground v.1.15,2013-11-14 09:12:00,
2013-11-14 04:13:00,28.7,20.1,30.47,SW,216,0.0,3.0,70,0.00,,,0.00,Wunderground v.1.15,2013-11-14 09:13:00,
2013-11-14 04:14:00,28.6,20.1,30.46,SW,216,0.0,3.0,70,0.00,,,0.00,Wunderground v.1.15,2013-11-14 09:14:00,
2013-11-14 04:18:00,28.6,20.1,30.46,SW,216,0.0,3.0,70,0.00,,,0.00,Wunderground v.1.15,2013-11-14 09:18:00,
2013-11-14 04:20:00,28.6,20.1,30.46,SW,216,0.0,3.0,70,0.00,,,0.00,Wunderground v.1.15,2013-11-14 09:20:00,
2013-11-14 04:21:00,28.6,20.1,30.46,SW,216,0.0,3.0,70,0.00,,,0.00,Wunderground v.1.15,2013-11-14 09:21:00,
2013-11-14 04:23:00,28.7,20.1,30.46,SW,216,0.0,3.0,70,0.00,,,0.00,Wunderground v.1.15,2013-11-14 09:23:00,
2013-11-14 04:27:00,28.9,20.3,30.46,SW,216,0.0,3.0,70,0.00,,,0.00,Wunderground v.1.15,2013-11-14 09:27:00,
2013-11-14 04:30:00,28.9,20.3,30.46,SW,216,0.0,3.0,70,0.00,,,0.00,Wunderground v.1.15,2013-11-14 09:30:00,
2013-11-14 04:32:00,28.9,20.3,30.46,SW,216,0.0,3.0,70,0.00,,,0.00,Wunderground v.1.15,2013-11-14 09:32:00,
2013-11-14 04:35:00,29.0,20.4,30.46,SW,216,0.0,3.0,70,0.00,,,0.00,Wunderground v.1.15,2013-11-14 09:35:00,
2013-11-14 04:37:00,28.9,20.3,30.46,SW,216,0.0,3.0,70,0.00,,,0.00,Wunderground v.1.15,2013-11-14 09:37:00,
2013-11-14 04:39:00,28.9,20.3,30.46,SW,216,0.0,0.0,70,0.00,,,0.00,Wunderground v.1.15,2013-11-14 09:39:00,
2013-11-14 04:40:00,28.9,20.3,30.46,SW,216,0.0,0.0,70,0.00,,,0.00,Wunderground v.1.15,2013-11-14 09:40:00,
2013-11-14 04:46:00,28.8,20.2,30.46,SSW,197,0.0,0.0,70,0.00,,,0.00,Wunderground v.1.15,2013-11-14 09:46:00,
2013-11-14 04:47:00,28.8,20.2,30.45,SSW,197,0.0,0.0,70,0.00,,,0.00,Wunderground v.1.15,2013-11-14 09:47:00,
2013-11-14 04:50:00,28.8,20.2,30.46,SSW,197,0.0,0.0,70,0.00,,,0.00,Wunderground v.1.15,2013-11-14 09:50:00,
2013-11-14 04:51:00,28.8,20.6,30.45,SSW,197,0.0,1.0,71,0.00,,,0.00,Wunderground v.1.15,2013-11-14 09:51:00,
2013-11-14 04:52:00,28.7,20.5,30.45,SSW,197,0.0,1.0,71,0.00,,,0.00,Wunderground v.1.15,2013-11-14 09:52:00,
2013-11-14 04:54:00,28.7,20.5,30.45,SSW,197,0.0,1.0,71,0.00,,,0.00,Wunderground v.1.15,2013-11-14 09:54:00,
2013-11-14 04:55:00,28.7,20.5,30.45,SSW,197,0.0,1.0,71,0.00,,,0.00,Wunderground v.1.15,2013-11-14 09:55:00,
2013-11-14 04:56:00,28.7,20.5,30.45,SSW,198,0.0,1.0,71,0.00,,,0.00,Wunderground v.1.15,2013-11-14 09:56:00,
2013-11-14 04:58:00,28.6,20.4,30.45,SSW,198,0.0,1.0,71,0.00,,,0.00,Wunderground v.1.15,2013-11-14 09:58:00,
2013-11-14 04:59:00,28.6,20.4,30.45,SSW,198,0.0,0.0,71,0.00,,,0.00,Wunderground v.1.15,2013-11-14 09:59:00,
2013-11-14 05:03:00,28.7,20.8,30.45,SSW,198,0.0,0.0,72,0.00,,,0.00,Wunderground v.1.15,2013-11-14 10:03:00,
2013-11-14 05:04:00,28.7,20.8,30.45,SSW,213,0.0,1.0,72,0.00,,,0.00,Wunderground v.1.15,2013-11-14 10:04:00,
2013-11-14 05:07:00,28.8,20.9,30.45,SSW,213,0.0,1.0,72,0.00,,,0.00,Wunderground v.1.15,2013-11-14 10:07:00,
2013-11-14 05:10:00,28.8,20.9,30.45,SSW,212,0.0,4.0,72,0.00,,,0.00,Wunderground v.1.15,2013-11-14 10:10:00,
2013-11-14 05:14:00,28.9,21.0,30.45,SSW,196,1.0,4.0,72,0.00,,,0.00,Wunderground v.1.15,2013-11-14 10:14:00,
2013-11-14 05:16:00,28.9,21.0,30.45,SSW,196,1.0,4.0,72,0.00,,,0.00,Wunderground v.1.15,2013-11-14 10:16:00,
2013-11-14 05:19:00,29.0,21.1,30.45,SSW,206,1.0,1.0,72,0.00,,,0.00,Wunderground v.1.15,2013-11-14 10:19:00,
2013-11-14 05:21:00,29.1,20.9,30.45,SSW,206,1.0,1.0,71,0.00,,,0.00,Wunderground v.1.15,2013-11-14 10:21:00,
2013-11-14 05:22:00,29.1,20.9,30.45,SSW,206,1.0,1.0,71,0.00,,,0.00,Wunderground v.1.15,2013-11-14 10:22:00,
2013-11-14 05:24:00,29.2,21.3,30.45,SW,217,1.0,3.0,72,0.00,,,0.00,Wunderground v.1.15,2013-11-14 10:24:00,
2013-11-14 05:26:00,29.2,21.3,30.45,SW,217,1.0,3.0,72,0.00,,,0.00,Wunderground v.1.15,2013-11-14 10:26:00,
2013-11-14 05:30:00,29.2,21.3,30.45,SW,217,0.0,0.0,72,0.00,,,0.00,Wunderground v.1.15,2013-11-14 10:30:00,
2013-11-14 05:31:00,29.2,21.3,30.45,SW,217,0.0,2.0,72,0.00,,,0.00,Wunderground v.1.15,2013-11-14 10:31:00,
2013-11-14 05:33:00,29.3,21.4,30.45,SW,217,1.0,2.0,72,0.00,,,0.00,Wunderground v.1.15,2013-11-14 10:33:00,
2013-11-14 05:36:00,29.3,21.4,30.45,SSW,213,1.0,2.0,72,0.00,,,0.00,Wunderground v.1.15,2013-11-14 10:36:00,
2013-11-14 05:39:00,29.3,21.1,30.45,SSW,213,1.0,3.0,71,0.00,,,0.00,Wunderground v.1.15,2013-11-14 10:39:00,
2013-11-14 05:41:00,29.2,21.0,30.45,SSW,213,1.0,3.0,71,0.00,,,0.00,Wunderground v.1.15,2013-11-14 10:41:00,
2013-11-14 05:43:00,29.2,21.3,30.45,SSW,213,1.0,3.0,72,0.00,,,0.00,Wunderground v.1.15,2013-11-14 10:43:00,
2013-11-14 05:45:00,29.2,21.3,30.45,SSW,213,1.0,3.0,72,0.00,,,0.00,Wunderground v.1.15,2013-11-14 10:45:00,
2013-11-14 05:48:00,29.2,21.3,30.45,SSW,212,1.0,3.0,72,0.00,,,0.00,Wunderground v.1.15,2013-11-14 10:48:00,
2013-11-14 05:52:00,29.3,21.1,30.45,SSW,212,1.0,3.0,71,0.00,,,0.00,Wunderground v.1.15,2013-11-14 10:52:00,
2013-11-14 05:54:00,29.4,21.2,30.45,SSW,212,1.0,3.0,71,0.00,,,0.00,Wunderground v.1.15,2013-11-14 10:54:00,
2013-11-14 05:55:00,29.4,21.2,30.45,SSW,212,1.0,3.0,71,0.00,,,0.00,Wunderground v.1.15,2013-11-14 10:55:00,
2013-11-14 05:57:00,29.4,20.8,30.45,SSW,194,1.0,3.0,70,0.00,,,0.00,Wunderground v.1.15,2013-11-14 10:57:00,
2013-11-14 05:59:00,29.5,20.9,30.45,SSW,194,1.0,3.0,70,0.00,,,0.00,Wunderground v.1.15,2013-11-14 10:59:00,
2013-11-14 06:05:00,29.5,20.9,30.45,SSW,194,1.0,3.0,70,0.00,,,0.00,Wunderground v.1.15,2013-11-14 11:05:00,
2013-11-14 06:06:00,29.5,20.9,30.45,SSW,208,0.0,3.0,70,0.00,,,0.00,Wunderground v.1.15,2013-11-14 11:06:00,
2013-11-14 06:09:00,29.5,21.3,30.45,SSW,208,0.0,3.0,71,0.00,,,0.00,Wunderground v.1.15,2013-11-14 11:09:00,
2013-11-14 06:11:00,29.4,21.2,30.45,SW,217,0.0,3.0,71,0.00,,,0.00,Wunderground v.1.15,2013-11-14 11:11:00,
2013-11-14 06:16:00,29.2,20.6,30.45,SW,219,0.0,3.0,70,0.00,,,0.00,Wunderground v.1.15,2013-11-14 11:16:00,
2013-11-14 06:18:00,29.2,20.6,30.45,SSW,211,0.0,3.0,70,0.00,,,0.00,Wunderground v.1.15,2013-11-14 11:18:00,
2013-11-14 06:20:00,29.1,20.9,30.45,SSE,163,0.0,3.0,71,0.00,,,0.00,Wunderground v.1.15,2013-11-14 11:20:00,
2013-11-14 06:23:00,29.0,21.1,30.45,SSW,192,1.0,3.0,72,0.00,,,0.00,Wunderground v.1.15,2013-11-14 11:23:00,
2013-11-14 06:26:00,29.0,21.1,30.45,SSW,192,1.0,3.0,72,0.00,,,0.00,Wunderground v.1.15,2013-11-14 11:26:00,
2013-11-14 06:28:00,29.0,21.1,30.45,SSW,192,0.0,3.0,72,0.00,,,0.00,Wunderground v.1.15,2013-11-14 11:28:00,
2013-11-14 06:30:00,29.0,20.8,30.45,South,169,0.0,3.0,71,0.00,,,0.00,Wunderground v.1.15,2013-11-14 11:30:00,
2013-11-14 06:34:00,29.0,20.8,30.46,South,169,0.0,3.0,71,0.00,,,0.00,Wunderground v.1.15,2013-11-14 11:34:00,
2013-11-14 06:35:00,29.0,20.8,30.46,South,169,0.0,3.0,71,0.00,,,0.00,Wunderground v.1.15,2013-11-14 11:35:00,
2013-11-14 06:39:00,28.9,20.7,30.46,South,169,0.0,3.0,71,0.00,,,0.00,Wunderground v.1.15,2013-11-14 11:39:00,
2013-11-14 06:41:00,29.0,20.8,30.46,South,169,0.0,3.0,71,0.00,,,0.00,Wunderground v.1.15,2013-11-14 11:41:00,
2013-11-14 06:42:00,29.0,20.8,30.46,South,169,0.0,3.0,71,0.00,,,0.00,Wunderground v.1.15,2013-11-14 11:42:00,
2013-11-14 06:45:00,29.0,20.8,30.46,South,169,0.0,3.0,71,0.00,,,0.00,Wunderground v.1.15,2013-11-14 11:45:00,
2013-11-14 06:47:00,28.9,20.7,30.46,South,169,0.0,3.0,71,0.00,,,0.00,Wunderground v.1.15,2013-11-14 11:47:00,
2013-11-14 06:49:00,28.9,20.3,30.46,South,182,0.0,3.0,70,0.00,,,0.00,Wunderground v.1.15,2013-11-14 11:49:00,
2013-11-14 06:52:00,28.9,20.3,30.46,SSW,194,0.0,3.0,70,0.00,,,0.00,Wunderground v.1.15,2013-11-14 11:52:00,
2013-11-14 06:53:00,28.9,20.3,30.46,SSW,194,0.0,3.0,70,0.00,,,0.00,Wunderground v.1.15,2013-11-14 11:53:00,
2013-11-14 06:55:00,28.8,20.2,30.46,SSW,194,0.0,3.0,70,0.00,,,0.00,Wunderground v.1.15,2013-11-14 11:55:00,
2013-11-14 06:59:00,28.8,20.6,30.46,SSW,194,0.0,3.0,71,0.00,,,0.00,Wunderground v.1.15,2013-11-14 11:59:00,
2013-11-14 07:03:00,28.7,20.5,30.46,South,188,0.0,4.0,71,0.00,,,0.00,Wunderground v.1.15,2013-11-14 12:03:00,
2013-11-14 07:06:00,28.7,20.8,30.46,South,188,1.0,4.0,72,0.00,,,0.00,Wunderground v.1.15,2013-11-14 12:06:00,
2013-11-14 07:08:00,28.6,20.7,30.46,South,188,1.0,1.0,72,0.00,,,0.00,Wunderground v.1.15,2013-11-14 12:08:00,
2013-11-14 07:12:00,28.6,20.7,30.46,South,188,1.0,3.0,72,0.00,,,0.00,Wunderground v.1.15,2013-11-14 12:12:00,
2013-11-14 07:14:00,28.6,20.7,30.45,South,190,0.0,3.0,72,0.00,,,0.00,Wunderground v.1.15,2013-11-14 12:14:00,
2013-11-14 07:15:00,28.7,20.8,30.46,South,190,0.0,3.0,72,0.00,,,0.00,Wunderground v.1.15,2013-11-14 12:15:00,
2013-11-14 07:18:00,28.9,21.0,30.46,South,190,0.0,3.0,72,0.00,,,0.00,Wunderground v.1.15,2013-11-14 12:18:00,
2013-11-14 07:19:00,28.9,21.0,30.46,South,190,0.0,3.0,72,0.00,,,0.00,Wunderground v.1.15,2013-11-14 12:19:00,
2013-11-14 07:21:00,29.0,21.1,30.45,SSW,207,1.0,3.0,72,0.00,,,0.00,Wunderground v.1.15,2013-11-14 12:21:00,
2013-11-14 07:22:00,29.0,21.1,30.45,SSW,204,1.0,3.0,72,0.00,,,0.00,Wunderground v.1.15,2013-11-14 12:22:00,
2013-11-14 07:24:00,29.1,20.9,30.45,SSW,204,1.0,3.0,71,0.00,,,0.00,Wunderground v.1.15,2013-11-14 12:24:00,
2013-11-14 07:28:00,29.2,21.3,30.45,SW,229,1.0,3.0,72,0.00,,,0.00,Wunderground v.1.15,2013-11-14 12:28:00,
2013-11-14 07:31:00,29.2,21.3,30.45,SSE,154,1.0,3.0,72,0.00,,,0.00,Wunderground v.1.15,2013-11-14 12:31:00,
2013-11-14 07:34:00,29.3,21.4,30.45,SSW,212,1.0,3.0,72,0.00,,,0.00,Wunderground v.1.15,2013-11-14 12:34:00,
2013-11-14 07:35:00,29.3,21.4,30.45,SSW,209,1.0,3.0,72,0.00,,,0.00,Wunderground v.1.15,2013-11-14 12:35:00,
2013-11-14 07:36:00,29.4,21.2,30.45,SSW,208,1.0,3.0,71,0.00,,,0.00,Wunderground v.1.15,2013-11-14 12:36:00,
2013-11-14 07:39:00,29.4,21.5,30.45,SW,219,1.0,4.0,72,0.00,,,0.00,Wunderground v.1.15,2013-11-14 12:39:00,
2013-11-14 07:40:00,29.5,21.6,30.45,SSW,202,1.0,4.0,72,0.00,,,0.00,Wunderground v.1.15,2013-11-14 12:40:00,
2013-11-14 07:41:00,29.5,21.3,30.45,SSW,202,1.0,4.0,71,0.00,,,0.00,Wunderground v.1.15,2013-11-14 12:41:00,
2013-11-14 07:46:00,29.5,21.6,30.45,South,175,1.0,4.0,72,0.00,,,0.00,Wunderground v.1.15,2013-11-14 12:46:00,
2013-11-14 07:48:00,29.6,21.7,30.45,South,175,1.0,4.0,72,0.00,,,0.00,Wunderground v.1.15,2013-11-14 12:48:00,
2013-11-14 07:49:00,29.6,21.7,30.45,SSW,205,1.0,4.0,72,0.00,,,0.00,Wunderground v.1.15,2013-11-14 12:49:00,
2013-11-14 07:51:00,29.7,21.8,30.45,SSW,205,1.0,4.0,72,0.00,,,0.00,Wunderground v.1.15,2013-11-14 12:51:00,
2013-11-14 07:55:00,29.8,21.9,30.45,SSW,200,2.0,7.0,72,0.00,,,0.00,Wunderground v.1.15,2013-11-14 12:55:00,
2013-11-14 07:57:00,29.9,22.0,30.45,SW,215,2.0,7.0,72,0.00,,,0.00,Wunderground v.1.15,2013-11-14 12:57:00,
2013-11-14 07:58:00,30.0,21.7,30.45,South,186,2.0,4.0,71,0.00,,,0.00,Wunderground v.1.15,2013-11-14 12:58:00,
2013-11-14 08:00:00,30.2,21.9,30.45,South,188,2.0,4.0,71,0.00,,,0.00,Wunderground v.1.15,2013-11-14 13:00:00,
2013-11-14 08:02:00,30.2,21.9,30.45,South,188,2.0,4.0,71,0.00,,,0.00,Wunderground v.1.15,2013-11-14 13:02:00,
2013-11-14 08:03:00,30.3,21.7,30.45,SSW,205,2.0,4.0,70,0.00,,,0.00,Wunderground v.1.15,2013-11-14 13:03:00,
2013-11-14 08:04:00,30.4,21.8,30.45,SSW,205,2.0,4.0,70,0.00,,,0.00,Wunderground v.1.15,2013-11-14 13:04:00,
2013-11-14 08:06:00,30.5,21.9,30.45,South,190,2.0,4.0,70,0.00,,,0.00,Wunderground v.1.15,2013-11-14 13:06:00,
2013-11-14 08:07:00,30.6,22.3,30.45,SSW,204,2.0,4.0,71,0.00,,,0.00,Wunderground v.1.15,2013-11-14 13:07:00,
2013-11-14 08:09:00,30.6,22.3,30.45,SSW,208,2.0,4.0,71,0.00,,,0.00,Wunderground v.1.15,2013-11-14 13:09:00,
2013-11-14 08:11:00,30.7,22.1,30.45,SSW,206,2.0,4.0,70,0.00,,,0.00,Wunderground v.1.15,2013-11-14 13:11:00,
2013-11-14 08:13:00,30.8,22.2,30.45,SSW,206,2.0,4.0,70,0.00,,,0.00,Wunderground v.1.15,2013-11-14 13:13:00,
2013-11-14 08:15:00,30.9,21.9,30.45,SSW,206,2.0,4.0,69,0.00,,,0.00,Wunderground v.1.15,2013-11-14 13:15:00,
2013-11-14 08:18:00,30.9,21.9,30.45,SSW,205,2.0,4.0,69,0.00,,,0.00,Wunderground v.1.15,2013-11-14 13:18:00,
2013-11-14 08:20:00,31.2,22.2,30.45,South,190,1.0,7.0,69,0.00,,,0.00,Wunderground v.1.15,2013-11-14 13:20:00,
2013-11-14 08:22:00,31.4,22.1,30.45,SW,217,1.0,7.0,68,0.00,,,0.00,Wunderground v.1.15,2013-11-14 13:22:00,
2013-11-14 08:24:00,31.7,22.3,30.45,SSW,204,2.0,7.0,68,0.00,,,0.00,Wunderground v.1.15,2013-11-14 13:24:00,
2013-11-14 08:26:00,32.0,22.3,30.45,SSW,204,2.0,7.0,67,0.00,,,0.00,Wunderground v.1.15,2013-11-14 13:26:00,
2013-11-14 08:29:00,32.3,22.6,30.45,SW,220,2.0,4.0,67,0.00,,,0.00,Wunderground v.1.15,2013-11-14 13:29:00,
2013-11-14 08:30:00,32.4,22.7,30.45,SSW,213,3.0,4.0,67,0.00,,,0.00,Wunderground v.1.15,2013-11-14 13:30:00,
2013-11-14 08:32:00,32.6,22.8,30.45,SW,218,3.0,4.0,67,0.00,,,0.00,Wunderground v.1.15,2013-11-14 13:32:00,
2013-11-14 08:34:00,32.6,22.5,30.45,SSW,193,3.0,4.0,66,0.00,,,0.00,Wunderground v.1.15,2013-11-14 13:34:00,
2013-11-14 08:36:00,32.8,22.7,30.45,SW,216,3.0,5.0,66,0.00,,,0.00,Wunderground v.1.15,2013-11-14 13:36:00,
2013-11-14 08:39:00,33.0,22.5,30.45,SSW,201,3.0,7.0,65,0.00,,,0.00,Wunderground v.1.15,2013-11-14 13:39:00,
2013-11-14 08:41:00,33.2,22.7,30.45,SSW,202,2.0,7.0,65,0.00,,,0.00,Wunderground v.1.15,2013-11-14 13:41:00,
2013-11-14 08:43:00,33.4,22.9,30.45,SSW,192,2.0,7.0,65,0.00,,,0.00,Wunderground v.1.15,2013-11-14 13:43:00,
2013-11-14 08:46:00,33.5,22.6,30.45,SW,217,2.0,7.0,64,0.00,,,0.00,Wunderground v.1.15,2013-11-14 13:46:00,
2013-11-14 08:47:00,33.6,22.7,30.45,SW,217,1.0,7.0,64,0.00,,,0.00,Wunderground v.1.15,2013-11-14 13:47:00,
2013-11-14 08:48:00,33.6,22.7,30.45,SW,217,1.0,7.0,64,0.00,,,0.00,Wunderground v.1.15,2013-11-14 13:48:00,
2013-11-14 08:50:00,33.7,22.8,30.45,SSW,209,1.0,7.0,64,0.00,,,0.00,Wunderground v.1.15,2013-11-14 13:50:00,
2013-11-14 08:51:00,33.7,22.8,30.45,WSW,251,1.0,7.0,64,0.00,,,0.00,Wunderground v.1.15,2013-11-14 13:51:00,
2013-11-14 08:54:00,34.0,22.7,30.45,WSW,252,1.0,7.0,63,0.00,,,0.00,Wunderground v.1.15,2013-11-14 13:54:00,
2013-11-14 08:55:00,34.1,22.8,30.45,SSW,192,1.0,7.0,63,0.00,,,0.00,Wunderground v.1.15,2013-11-14 13:55:00,
2013-11-14 08:57:00,34.3,22.6,30.45,WSW,239,1.0,7.0,62,0.00,,,0.00,Wunderground v.1.15,2013-11-14 13:57:00,
2013-11-14 09:01:00,34.8,23.5,30.45,SSW,196,1.0,7.0,63,0.00,,,0.00,Wunderground v.1.15,2013-11-14 14:01:00,
2013-11-14 09:03:00,35.0,23.3,30.45,SSW,198,1.0,7.0,62,0.00,,,0.00,Wunderground v.1.15,2013-11-14 14:03:00,
2013-11-14 09:04:00,35.3,23.6,30.45,SSW,211,1.0,7.0,62,0.00,,,0.00,Wunderground v.1.15,2013-11-14 14:04:00,
2013-11-14 09:06:00,35.5,23.4,30.45,SW,227,2.0,7.0,61,0.00,,,0.00,Wunderground v.1.15,2013-11-14 14:06:00,
2013-11-14 09:08:00,35.7,23.6,30.45,SSW,197,2.0,8.0,61,0.00,,,0.00,Wunderground v.1.15,2013-11-14 14:08:00,
2013-11-14 09:11:00,36.2,23.2,30.45,SSW,211,3.0,7.0,59,0.00,,,0.00,Wunderground v.1.15,2013-11-14 14:11:00,
2013-11-14 09:13:00,36.4,23.4,30.45,SW,221,3.0,7.0,59,0.00,,,0.00,Wunderground v.1.15,2013-11-14 14:13:00,
2013-11-14 09:15:00,36.5,23.5,30.45,SW,217,3.0,7.0,59,0.00,,,0.00,Wunderground v.1.15,2013-11-14 14:15:00,
2013-11-14 09:20:00,36.7,24.1,30.45,WSW,255,3.0,7.0,60,0.00,,,0.00,Wunderground v.1.15,2013-11-14 14:20:00,
2013-11-14 09:22:00,36.8,23.8,30.45,SSW,200,3.0,7.0,59,0.00,,,0.00,Wunderground v.1.15,2013-11-14 14:22:00,
2013-11-14 09:24:00,36.9,23.9,30.45,SSW,194,3.0,7.0,59,0.00,,,0.00,Wunderground v.1.15,2013-11-14 14:24:00,
2013-11-14 09:25:00,37.0,24.0,30.45,SSW,211,3.0,7.0,59,0.00,,,0.00,Wunderground v.1.15,2013-11-14 14:25:00,
2013-11-14 09:26:00,37.1,24.1,30.44,SSW,198,3.0,7.0,59,0.00,,,0.00,Wunderground v.1.15,2013-11-14 14:26:00,
2013-11-14 09:30:00,37.5,23.6,30.44,South,191,4.0,7.0,57,0.00,,,0.00,Wunderground v.1.15,2013-11-14 14:30:00,
2013-11-14 09:32:00,37.7,23.8,30.44,SSW,196,3.0,7.0,57,0.00,,,0.00,Wunderground v.1.15,2013-11-14 14:32:00,
2013-11-14 09:34:00,37.8,23.9,30.45,West,261,4.0,7.0,57,0.00,,,0.00,Wunderground v.1.15,2013-11-14 14:34:00,
2013-11-14 09:35:00,37.9,23.6,30.45,SSW,202,4.0,7.0,56,0.00,,,0.00,Wunderground v.1.15,2013-11-14 14:35:00,
2013-11-14 09:38:00,38.0,23.7,30.44,SSW,207,4.0,7.0,56,0.00,,,0.00,Wunderground v.1.15,2013-11-14 14:38:00,
2013-11-14 09:39:00,38.1,24.2,30.44,SSW,207,3.0,12.0,57,0.00,,,0.00,Wunderground v.1.15,2013-11-14 14:39:00,
2013-11-14 09:40:00,38.2,24.3,30.44,SSW,209,3.0,12.0,57,0.00,,,0.00,Wunderground v.1.15,2013-11-14 14:40:00,
2013-11-14 09:41:00,38.2,24.7,30.44,SSW,200,3.0,12.0,58,0.00,,,0.00,Wunderground v.1.15,2013-11-14 14:41:00,
2013-11-14 09:44:00,38.4,24.5,30.44,SW,222,3.0,12.0,57,0.00,,,0.00,Wunderground v.1.15,2013-11-14 14:44:00,
2013-11-14 09:47:00,38.7,25.2,30.44,SW,234,2.0,12.0,58,0.00,,,0.00,Wunderground v.1.15,2013-11-14 14:47:00,
2013-11-14 09:48:00,38.9,24.5,30.44,SSW,207,2.0,12.0,56,0.00,,,0.00,Wunderground v.1.15,2013-11-14 14:48:00,
2013-11-14 09:50:00,39.0,24.6,30.44,WNW,288,3.0,12.0,56,0.00,,,0.00,Wunderground v.1.15,2013-11-14 14:50:00,
2013-11-14 09:51:00,39.2,24.4,30.44,WSW,255,3.0,12.0,55,0.00,,,0.00,Wunderground v.1.15,2013-11-14 14:51:00,
2013-11-14 09:52:00,39.3,24.5,30.44,WSW,238,3.0,12.0,55,0.00,,,0.00,Wunderground v.1.15,2013-11-14 14:52:00,
2013-11-14 09:56:00,39.7,24.8,30.44,SW,217,4.0,12.0,55,0.00,,,0.00,Wunderground v.1.15,2013-11-14 14:56:00,
2013-11-14 09:57:00,39.8,25.4,30.44,SW,219,4.0,12.0,56,0.00,,,0.00,Wunderground v.1.15,2013-11-14 14:57:00,
2013-11-14 09:59:00,40.0,24.7,30.45,South,175,4.0,12.0,54,0.00,,,0.00,Wunderground v.1.15,2013-11-14 14:59:00,
2013-11-14 10:00:00,40.0,24.2,30.45,West,259,4.0,12.0,53,0.00,,,0.00,Wunderground v.1.15,2013-11-14 15:00:00,
2013-11-14 10:03:00,40.4,24.6,30.45,SSW,194,4.0,12.0,53,0.00,,,0.00,Wunderground v.1.15,2013-11-14 15:03:00,
2013-11-14 10:04:00,40.5,24.7,30.44,SW,216,4.0,12.0,53,0.00,,,0.00,Wunderground v.1.15,2013-11-14 15:04:00,
2013-11-14 10:06:00,40.8,25.0,30.44,WSW,254,4.0,12.0,53,0.00,,,0.00,Wunderground v.1.15,2013-11-14 15:06:00,
2013-11-14 10:07:00,41.0,25.2,30.44,SSE,165,3.0,12.0,53,0.00,,,0.00,Wunderground v.1.15,2013-11-14 15:07:00,
2013-11-14 10:08:00,41.0,25.6,30.44,SSW,209,3.0,12.0,54,0.00,,,0.00,Wunderground v.1.15,2013-11-14 15:08:00,
2013-11-14 10:09:00,41.3,25.4,30.44,South,185,3.0,5.0,53,0.00,,,0.00,Wunderground v.1.15,2013-11-14 15:09:00,
2013-11-14 10:13:00,41.5,24.7,30.44,SSW,206,3.0,12.0,51,0.00,,,0.00,Wunderground v.1.15,2013-11-14 15:13:00,
2013-11-14 10:15:00,41.6,23.8,30.44,SW,222,4.0,12.0,49,0.00,,,0.00,Wunderground v.1.15,2013-11-14 15:15:00,
2013-11-14 10:17:00,41.7,23.9,30.44,WSW,253,4.0,12.0,49,0.00,,,0.00,Wunderground v.1.15,2013-11-14 15:17:00,
2013-11-14 10:19:00,42.0,25.2,30.44,SSW,207,4.0,12.0,51,0.00,,,0.00,Wunderground v.1.15,2013-11-14 15:19:00,
2013-11-14 10:22:00,42.2,24.9,30.44,West,261,5.0,12.0,50,0.00,,,0.00,Wunderground v.1.15,2013-11-14 15:22:00,
2013-11-14 10:23:00,42.2,24.4,30.44,SSW,211,5.0,12.0,49,0.00,,,0.00,Wunderground v.1.15,2013-11-14 15:23:00,
2013-11-14 10:25:00,42.3,25.0,30.44,SW,234,4.0,12.0,50,0.00,,,0.00,Wunderground v.1.15,2013-11-14 15:25:00,
2013-11-14 10:29:00,42.6,25.2,30.45,SW,220,4.0,4.0,50,0.00,,,0.00,Wunderground v.1.15,2013-11-14 15:29:00,
2013-11-14 10:31:00,43.0,24.6,30.44,West,277,4.0,12.0,48,0.00,,,0.00,Wunderground v.1.15,2013-11-14 15:31:00,
2013-11-14 10:35:00,43.3,25.9,30.44,SW,231,4.0,12.0,50,0.00,,,0.00,Wunderground v.1.15,2013-11-14 15:35:00,
2013-11-14 10:36:00,43.5,25.1,30.44,SSW,202,4.0,12.0,48,0.00,,,0.00,Wunderground v.1.15,2013-11-14 15:36:00,
2013-11-14 10:37:00,43.6,25.7,30.44,WNW,284,4.0,12.0,49,0.00,,,0.00,Wunderground v.1.15,2013-11-14 15:37:00,
2013-11-14 10:39:00,43.8,25.4,30.44,SW,219,4.0,4.0,48,0.00,,,0.00,Wunderground v.1.15,2013-11-14 15:39:00,
2013-11-14 10:43:00,44.1,25.1,30.44,South,173,3.0,10.0,47,0.00,,,0.00,Wunderground v.1.15,2013-11-14 15:43:00,
2013-11-14 10:44:00,44.2,24.7,30.44,SSW,193,4.0,12.0,46,0.00,,,0.00,Wunderground v.1.15,2013-11-14 15:44:00,
2013-11-14 10:46:00,44.2,25.2,30.44,SSW,204,4.0,12.0,47,0.00,,,0.00,Wunderground v.1.15,2013-11-14 15:46:00,
2013-11-14 10:48:00,44.2,25.7,30.44,SSW,210,4.0,12.0,48,0.00,,,0.00,Wunderground v.1.15,2013-11-14 15:48:00,
2013-11-14 10:50:00,44.4,25.9,30.44,SW,221,4.0,10.0,48,0.00,,,0.00,Wunderground v.1.15,2013-11-14 15:50:00,
2013-11-14 10:53:00,44.8,25.3,30.44,South,182,4.0,10.0,46,0.00,,,0.00,Wunderground v.1.15,2013-11-14 15:53:00,
2013-11-14 10:56:00,45.1,25.0,30.44,South,174,4.0,10.0,45,0.00,,,0.00,Wunderground v.1.15,2013-11-14 15:56:00,
2013-11-14 10:57:00,45.1,25.5,30.44,South,191,4.0,10.0,46,0.00,,,0.00,Wunderground v.1.15,2013-11-14 15:57:00,
2013-11-14 10:58:00,45.2,25.6,30.44,WSW,251,4.0,10.0,46,0.00,,,0.00,Wunderground v.1.15,2013-11-14 15:58:00,
2013-11-14 11:00:00,45.2,25.1,30.44,WSW,254,4.0,10.0,45,0.00,,,0.00,Wunderground v.1.15,2013-11-14 16:00:00,
2013-11-14 11:01:00,45.2,25.6,30.44,SSW,194,4.0,10.0,46,0.00,,,0.00,Wunderground v.1.15,2013-11-14 16:01:00,
2013-11-14 11:05:00,45.6,26.0,30.43,SW,224,4.0,10.0,46,0.00,,,0.00,Wunderground v.1.15,2013-11-14 16:05:00,
2013-11-14 11:07:00,45.8,25.6,30.43,SSW,203,4.0,10.0,45,0.00,,,0.00,Wunderground v.1.15,2013-11-14 16:07:00,
2013-11-14 11:08:00,45.9,25.7,30.44,SSW,211,4.0,10.0,45,0.00,,,0.00,Wunderground v.1.15,2013-11-14 16:08:00,
2013-11-14 11:09:00,46.0,25.3,30.43,West,279,4.0,10.0,44,0.00,,,0.00,Wunderground v.1.15,2013-11-14 16:09:00,
2013-11-14 11:12:00,46.1,25.4,30.43,WSW,244,4.0,10.0,44,0.00,,,0.00,Wunderground v.1.15,2013-11-14 16:12:00,
2013-11-14 11:13:00,46.1,25.4,30.43,SSW,206,4.0,10.0,44,0.00,,,0.00,Wunderground v.1.15,2013-11-14 16:13:00,
2013-11-14 11:16:00,46.4,25.1,30.43,South,174,4.0,10.0,43,0.00,,,0.00,Wunderground v.1.15,2013-11-14 16:16:00,
2013-11-14 11:19:00,46.9,26.6,30.43,SE,132,4.0,4.0,45,0.00,,,0.00,Wunderground v.1.15,2013-11-14 16:19:00,
2013-11-14 11:21:00,47.3,25.9,30.43,WNW,289,3.0,10.0,43,0.00,,,0.00,Wunderground v.1.15,2013-11-14 16:21:00,
2013-11-14 11:24:00,47.7,26.3,30.43,WSW,242,2.0,10.0,43,0.00,,,0.00,Wunderground v.1.15,2013-11-14 16:24:00,
2013-11-14 11:27:00,48.2,26.2,30.43,SSW,194,3.0,10.0,42,0.00,,,0.00,Wunderground v.1.15,2013-11-14 16:27:00,
2013-11-14 11:28:00,48.2,25.6,30.43,SW,215,3.0,10.0,41,0.00,,,0.00,Wunderground v.1.15,2013-11-14 16:28:00,
2013-11-14 11:29:00,48.4,26.3,30.42,SSW,202,3.0,4.0,42,0.00,,,0.00,Wunderground v.1.15,2013-11-14 16:29:00,
2013-11-14 11:31:00,48.4,25.2,30.42,WNW,291,2.0,10.0,40,0.00,,,0.00,Wunderground v.1.15,2013-11-14 16:31:00,
2013-11-14 11:34:00,48.7,24.8,30.42,WNW,286,3.0,10.0,39,0.00,,,0.00,Wunderground v.1.15,2013-11-14 16:34:00,
2013-11-14 11:35:00,48.9,24.4,30.42,SSW,196,3.0,10.0,38,0.00,,,0.00,Wunderground v.1.15,2013-11-14 16:35:00,
2013-11-14 11:36:00,49.0,23.2,30.42,SW,228,3.0,10.0,36,0.00,,,0.00,Wunderground v.1.15,2013-11-14 16:36:00,
2013-11-14 11:39:00,48.8,23.6,30.42,SSW,202,4.0,4.0,37,0.00,,,0.00,Wunderground v.1.15,2013-11-14 16:39:00,
2013-11-14 11:41:00,48.8,23.6,30.42,SW,223,5.0,9.0,37,0.00,,,0.00,Wunderground v.1.15,2013-11-14 16:41:00,
2013-11-14 11:44:00,49.1,24.6,30.41,West,273,5.0,9.0,38,0.00,,,0.00,Wunderground v.1.15,2013-11-14 16:44:00,
2013-11-14 11:45:00,49.2,24.6,30.41,SW,219,5.0,9.0,38,0.00,,,0.00,Wunderground v.1.15,2013-11-14 16:45:00,
2013-11-14 11:48:00,49.3,24.1,30.41,SSW,203,5.0,9.0,37,0.00,,,0.00,Wunderground v.1.15,2013-11-14 16:48:00,
2013-11-14 11:50:00,49.4,24.2,30.41,West,266,5.0,9.0,37,0.00,,,0.00,Wunderground v.1.15,2013-11-14 16:50:00,
2013-11-14 11:54:00,49.9,24.6,30.41,South,185,4.0,9.0,37,0.00,,,0.00,Wunderground v.1.15,2013-11-14 16:54:00,
2013-11-14 11:56:00,50.1,24.8,30.41,SW,234,4.0,9.0,37,0.00,,,0.00,Wunderground v.1.15,2013-11-14 16:56:00,
2013-11-14 11:58:00,50.1,22.8,30.40,WNW,292,4.0,9.0,34,0.00,,,0.00,Wunderground v.1.15,2013-11-14 16:58:00,
2013-11-14 12:02:00,50.3,23.0,30.40,WSW,241,4.0,9.0,34,0.00,,,0.00,Wunderground v.1.15,2013-11-14 17:02:00,
2013-11-14 12:03:00,50.4,24.4,30.40,SW,225,4.0,9.0,36,0.00,,,0.00,Wunderground v.1.15,2013-11-14 17:03:00,
2013-11-14 12:07:00,50.5,23.1,30.40,SW,235,4.0,9.0,34,0.00,,,0.00,Wunderground v.1.15,2013-11-14 17:07:00,
2013-11-14 12:10:00,50.6,23.9,30.40,WSW,248,4.0,9.0,35,0.00,,,0.00,Wunderground v.1.15,2013-11-14 17:10:00,
2013-11-14 12:13:00,50.9,24.2,30.40,SSW,194,3.0,9.0,35,0.00,,,0.00,Wunderground v.1.15,2013-11-14 17:13:00,
2013-11-14 12:14:00,51.0,23.6,30.40,SSW,199,3.0,9.0,34,0.00,,,0.00,Wunderground v.1.15,2013-11-14 17:14:00,
2013-11-14 12:17:00,51.1,24.4,30.40,SSW,205,3.0,9.0,35,0.00,,,0.00,Wunderground v.1.15,2013-11-14 17:17:00,
2013-11-14 12:18:00,51.2,24.5,30.39,SW,219,3.0,9.0,35,0.00,,,0.00,Wunderground v.1.15,2013-11-14 17:18:00,
2013-11-14 12:21:00,51.3,23.8,30.39,West,261,3.0,9.0,34,0.00,,,0.00,Wunderground v.1.15,2013-11-14 17:21:00,
2013-11-14 12:23:00,51.5,24.0,30.39,SSW,200,3.0,9.0,34,0.00,,,0.00,Wunderground v.1.15,2013-11-14 17:23:00,
2013-11-14 12:24:00,51.8,24.3,30.39,SSW,211,3.0,9.0,34,0.00,,,0.00,Wunderground v.1.15,2013-11-14 17:24:00,
2013-11-14 12:26:00,52.1,24.6,30.39,South,187,2.0,9.0,34,0.00,,,0.00,Wunderground v.1.15,2013-11-14 17:26:00,
2013-11-14 12:27:00,52.2,23.2,30.39,South,186,2.0,9.0,32,0.00,,,0.00,Wunderground v.1.15,2013-11-14 17:27:00,
2013-11-14 12:30:00,52.5,23.5,30.38,South,190,2.0,9.0,32,0.00,,,0.00,Wunderground v.1.15,2013-11-14 17:30:00,
2013-11-14 12:31:00,52.6,23.5,30.38,SSW,192,2.0,9.0,32,0.00,,,0.00,Wunderground v.1.15,2013-11-14 17:31:00,
2013-11-14 12:33:00,52.6,23.5,30.38,SSW,194,2.0,10.0,32,0.00,,,0.00,Wunderground v.1.15,2013-11-14 17:33:00,
2013-11-14 12:34:00,52.3,21.7,30.38,South,190,3.0,10.0,30,0.00,,,0.00,Wunderground v.1.15,2013-11-14 17:34:00,
2013-11-14 12:35:00,52.2,21.7,30.38,SSW,199,3.0,10.0,30,0.00,,,0.00,Wunderground v.1.15,2013-11-14 17:35:00,
2013-11-14 12:40:00,52.2,21.7,30.37,ESE,120,5.0,8.0,30,0.00,,,0.00,Wunderground v.1.15,2013-11-14 17:40:00,
2013-11-14 12:41:00,52.2,22.4,30.37,WSW,250,5.0,8.0,31,0.00,,,0.00,Wunderground v.1.15,2013-11-14 17:41:00,
2013-11-14 12:44:00,52.0,20.7,30.37,SSW,194,6.0,8.0,29,0.00,,,0.00,Wunderground v.1.15,2013-11-14 17:44:00,
2013-11-14 12:46:00,52.2,22.4,30.37,West,280,5.0,8.0,31,0.00,,,0.00,Wunderground v.1.15,2013-11-14 17:46:00,
2013-11-14 12:49:00,52.6,21.2,30.36,SSW,200,4.0,8.0,29,0.00,,,0.00,Wunderground v.1.15,2013-11-14 17:49:00,
2013-11-14 12:51:00,52.5,21.1,30.36,WNW,298,4.0,8.0,29,0.00,,,0.00,Wunderground v.1.15,2013-11-14 17:51:00,
2013-11-14 12:53:00,52.4,22.6,30.36,SW,221,4.0,8.0,31,0.00,,,0.00,Wunderground v.1.15,2013-11-14 17:53:00,
2013-11-14 12:54:00,52.6,22.0,30.36,WNW,290,4.0,8.0,30,0.00,,,0.00,Wunderground v.1.15,2013-11-14 17:54:00,
2013-11-14 12:57:00,53.0,22.4,30.36,SSW,211,4.0,8.0,30,0.00,,,0.00,Wunderground v.1.15,2013-11-14 17:57:00,
2013-11-14 12:59:00,53.2,20.9,30.35,West,261,4.0,8.0,28,0.00,,,0.00,Wunderground v.1.15,2013-11-14 17:59:00,
2013-11-14 13:01:00,53.2,20.9,30.36,SW,221,4.0,8.0,28,0.00,,,0.00,Wunderground v.1.15,2013-11-14 18:01:00,
2013-11-14 13:05:00,53.4,21.1,30.35,South,183,4.0,8.0,28,0.00,,,0.00,Wunderground v.1.15,2013-11-14 18:05:00,
2013-11-14 13:06:00,53.4,21.1,30.35,SSW,198,4.0,8.0,28,0.00,,,0.00,Wunderground v.1.15,2013-11-14 18:06:00,
2013-11-14 13:08:00,53.4,21.1,30.35,SSW,211,4.0,8.0,28,0.00,,,0.00,Wunderground v.1.15,2013-11-14 18:08:00,
2013-11-14 13:11:00,53.6,20.4,30.35,SW,235,4.0,8.0,27,0.00,,,0.00,Wunderground v.1.15,2013-11-14 18:11:00,
2013-11-14 13:13:00,53.9,20.6,30.35,SSW,208,3.0,8.0,27,0.00,,,0.00,Wunderground v.1.15,2013-11-14 18:13:00,
2013-11-14 13:14:00,54.0,21.6,30.34,South,188,3.0,8.0,28,0.00,,,0.00,Wunderground v.1.15,2013-11-14 18:14:00,
2013-11-14 13:18:00,53.9,20.6,30.35,South,190,3.0,8.0,27,0.00,,,0.00,Wunderground v.1.15,2013-11-14 18:18:00,
2013-11-14 13:20:00,54.0,21.6,30.35,WSW,237,4.0,8.0,28,0.00,,,0.00,Wunderground v.1.15,2013-11-14 18:20:00,
2013-11-14 13:23:00,54.1,21.7,30.34,SW,233,4.0,8.0,28,0.00,,,0.00,Wunderground v.1.15,2013-11-14 18:23:00,
2013-11-14 13:24:00,54.1,21.7,30.34,SSW,208,4.0,8.0,28,0.00,,,0.00,Wunderground v.1.15,2013-11-14 18:24:00,
2013-11-14 13:26:00,54.1,20.8,30.34,South,186,4.0,8.0,27,0.00,,,0.00,Wunderground v.1.15,2013-11-14 18:26:00,
2013-11-14 13:27:00,54.2,21.8,30.34,South,186,3.0,8.0,28,0.00,,,0.00,Wunderground v.1.15,2013-11-14 18:27:00,
2013-11-14 13:32:00,54.8,21.4,30.34,ESE,117,3.0,8.0,27,0.00,,,0.00,Wunderground v.1.15,2013-11-14 18:32:00,
2013-11-14 13:33:00,54.9,20.6,30.34,SW,217,3.0,9.0,26,0.00,,,0.00,Wunderground v.1.15,2013-11-14 18:33:00,
2013-11-14 13:35:00,54.9,20.6,30.34,SSE,165,3.0,9.0,26,0.00,,,0.00,Wunderground v.1.15,2013-11-14 18:35:00,
2013-11-14 13:36:00,54.8,20.5,30.34,SSW,203,3.0,9.0,26,0.00,,,0.00,Wunderground v.1.15,2013-11-14 18:36:00,
2013-11-14 13:39:00,54.6,21.2,30.34,West,267,4.0,11.0,27,0.00,,,0.00,Wunderground v.1.15,2013-11-14 18:39:00,
2013-11-14 13:41:00,54.7,22.2,30.34,SSW,202,4.0,11.0,28,0.00,,,0.00,Wunderground v.1.15,2013-11-14 18:41:00,
2013-11-14 13:43:00,54.8,19.6,30.33,SW,214,4.0,11.0,25,0.00,,,0.00,Wunderground v.1.15,2013-11-14 18:43:00,
2013-11-14 13:44:00,54.8,19.6,30.33,WSW,248,4.0,11.0,25,0.00,,,0.00,Wunderground v.1.15,2013-11-14 18:44:00,
2013-11-14 13:45:00,54.8,19.6,30.33,NW,312,4.0,11.0,25,0.00,,,0.00,Wunderground v.1.15,2013-11-14 18:45:00,
2013-11-14 13:46:00,54.7,19.5,30.33,SSW,197,4.0,11.0,25,0.00,,,0.00,Wunderground v.1.15,2013-11-14 18:46:00,
2013-11-14 13:50:00,54.7,19.5,30.33,West,261,4.0,11.0,25,0.00,,,0.00,Wunderground v.1.15,2013-11-14 18:50:00,
2013-11-14 13:52:00,54.9,19.7,30.33,SE,132,4.0,11.0,25,0.00,,,0.00,Wunderground v.1.15,2013-11-14 18:52:00,
2013-11-14 13:56:00,55.1,19.9,30.33,West,269,4.0,11.0,25,0.00,,,0.00,Wunderground v.1.15,2013-11-14 18:56:00,
2013-11-14 13:57:00,55.1,20.8,30.33,West,263,4.0,11.0,26,0.00,,,0.00,Wunderground v.1.15,2013-11-14 18:57:00,
2013-11-14 13:58:00,55.3,21.0,30.32,SW,230,4.0,4.0,26,0.00,,,0.00,Wunderground v.1.15,2013-11-14 18:58:00,
2013-11-14 14:01:00,55.6,21.2,30.33,SW,223,4.0,11.0,26,0.00,,,0.00,Wunderground v.1.15,2013-11-14 19:01:00,
2013-11-14 14:02:00,55.6,20.3,30.32,SSW,200,4.0,11.0,25,0.00,,,0.00,Wunderground v.1.15,2013-11-14 19:02:00,
2013-11-14 14:03:00,55.6,19.3,30.32,South,180,4.0,11.0,24,0.00,,,0.00,Wunderground v.1.15,2013-11-14 19:03:00,
2013-11-14 14:07:00,55.6,19.3,30.32,SSW,198,4.0,11.0,24,0.00,,,0.00,Wunderground v.1.15,2013-11-14 19:07:00,
2013-11-14 14:09:00,55.4,20.1,30.32,SSW,209,4.0,11.0,25,0.00,,,0.00,Wunderground v.1.15,2013-11-14 19:09:00,
2013-11-14 14:10:00,55.4,19.2,30.32,WNW,290,4.0,11.0,24,0.00,,,0.00,Wunderground v.1.15,2013-11-14 19:10:00,
2013-11-14 14:12:00,55.2,19.0,30.32,South,170,4.0,11.0,24,0.00,,,0.00,Wunderground v.1.15,2013-11-14 19:12:00,
2013-11-14 14:15:00,55.0,18.8,30.32,WNW,289,4.0,11.0,24,0.00,,,0.00,Wunderground v.1.15,2013-11-14 19:15:00,
2013-11-14 14:16:00,54.9,18.7,30.32,SSE,155,5.0,11.0,24,0.00,,,0.00,Wunderground v.1.15,2013-11-14 19:16:00,
2013-11-14 14:17:00,54.9,19.7,30.32,SSW,205,5.0,11.0,25,0.00,,,0.00,Wunderground v.1.15,2013-11-14 19:17:00,
2013-11-14 14:18:00,54.9,19.7,30.32,SSW,211,5.0,11.0,25,0.00,,,0.00,Wunderground v.1.15,2013-11-14 19:18:00,
2013-11-14 14:21:00,55.1,19.9,30.32,SW,229,4.0,11.0,25,0.00,,,0.00,Wunderground v.1.15,2013-11-14 19:21:00,
2013-11-14 14:24:00,55.3,20.0,30.31,SSW,192,4.0,11.0,25,0.00,,,0.00,Wunderground v.1.15,2013-11-14 19:24:00,
2013-11-14 14:27:00,55.5,19.2,30.31,WSW,254,4.0,11.0,24,0.00,,,0.00,Wunderground v.1.15,2013-11-14 19:27:00,
2013-11-14 14:29:00,55.3,21.0,30.31,SW,224,5.0,5.0,26,0.00,,,0.00,Wunderground v.1.15,2013-11-14 19:29:00,
2013-11-14 14:31:00,55.2,19.9,30.31,SSW,194,5.0,11.0,25,0.00,,,0.00,Wunderground v.1.15,2013-11-14 19:31:00,
2013-11-14 14:33:00,55.2,20.9,30.31,SSW,196,4.0,11.0,26,0.00,,,0.00,Wunderground v.1.15,2013-11-14 19:33:00,
2013-11-14 14:34:00,55.3,20.0,30.31,South,186,4.0,11.0,25,0.00,,,0.00,Wunderground v.1.15,2013-11-14 19:34:00,
2013-11-14 14:36:00,55.3,21.0,30.31,South,178,4.0,11.0,26,0.00,,,0.00,Wunderground v.1.15,2013-11-14 19:36:00,
2013-11-14 14:39:00,55.7,21.3,30.31,South,191,3.0,3.0,26,0.00,,,0.00,Wunderground v.1.15,2013-11-14 19:39:00,
2013-11-14 14:43:00,55.7,21.3,30.31,SW,229,3.0,12.0,26,0.00,,,0.00,Wunderground v.1.15,2013-11-14 19:43:00,
2013-11-14 14:45:00,55.6,19.3,30.31,South,184,3.0,12.0,24,0.00,,,0.00,Wunderground v.1.15,2013-11-14 19:45:00,
2013-11-14 14:47:00,55.5,20.2,30.30,SSW,198,4.0,12.0,25,0.00,,,0.00,Wunderground v.1.15,2013-11-14 19:47:00,
2013-11-14 14:48:00,55.5,20.2,30.30,SSW,201,4.0,12.0,25,0.00,,,0.00,Wunderground v.1.15,2013-11-14 19:48:00,
2013-11-14 14:51:00,55.3,20.0,30.30,West,265,5.0,12.0,25,0.00,,,0.00,Wunderground v.1.15,2013-11-14 19:51:00,
2013-11-14 14:53:00,55.1,19.9,30.30,South,186,6.0,12.0,25,0.00,,,0.00,Wunderground v.1.15,2013-11-14 19:53:00,
2013-11-14 14:54:00,55.1,18.9,30.30,SSW,209,6.0,12.0,24,0.00,,,0.00,Wunderground v.1.15,2013-11-14 19:54:00,
2013-11-14 14:56:00,55.1,19.9,30.30,SSW,202,6.0,12.0,25,0.00,,,0.00,Wunderground v.1.15,2013-11-14 19:56:00,
2013-11-14 14:58:00,55.1,19.9,30.30,SSW,205,6.0,12.0,25,0.00,,,0.00,Wunderground v.1.15,2013-11-14 19:58:00,
2013-11-14 14:59:00,55.1,18.9,30.30,WSW,252,5.0,5.0,24,0.00,,,0.00,Wunderground v.1.15,2013-11-14 19:59:00,
2013-11-14 15:00:00,55.2,19.0,30.30,SSW,208,5.0,12.0,24,0.00,,,0.00,Wunderground v.1.15,2013-11-14 20:00:00,
2013-11-14 15:01:00,55.3,20.0,30.30,SSW,196,5.0,12.0,25,0.00,,,0.00,Wunderground v.1.15,2013-11-14 20:01:00,
2013-11-14 15:04:00,55.5,21.1,30.30,West,271,4.0,12.0,26,0.00,,,0.00,Wunderground v.1.15,2013-11-14 20:04:00,
2013-11-14 15:06:00,55.7,20.4,30.30,SSW,192,3.0,12.0,25,0.00,,,0.00,Wunderground v.1.15,2013-11-14 20:06:00,
2013-11-14 15:09:00,55.9,20.5,30.30,SSW,209,3.0,12.0,25,0.00,,,0.00,Wunderground v.1.15,2013-11-14 20:09:00,
2013-11-14 15:12:00,55.8,21.4,30.30,South,175,3.0,12.0,26,0.00,,,0.00,Wunderground v.1.15,2013-11-14 20:12:00,
2013-11-14 15:13:00,55.9,21.5,30.30,SSW,211,3.0,12.0,26,0.00,,,0.00,Wunderground v.1.15,2013-11-14 20:13:00,
2013-11-14 15:15:00,55.8,20.5,30.30,SW,222,3.0,12.0,25,0.00,,,0.00,Wunderground v.1.15,2013-11-14 20:15:00,
2013-11-14 15:16:00,55.8,20.5,30.30,SSW,192,3.0,12.0,25,0.00,,,0.00,Wunderground v.1.15,2013-11-14 20:16:00,
2013-11-14 15:18:00,55.8,21.4,30.30,SW,215,3.0,12.0,26,0.00,,,0.00,Wunderground v.1.15,2013-11-14 20:18:00,
2013-11-14 15:23:00,55.4,20.1,30.30,SSW,194,3.0,12.0,25,0.00,,,0.00,Wunderground v.1.15,2013-11-14 20:23:00,
2013-11-14 15:25:00,55.3,21.0,30.29,South,186,3.0,12.0,26,0.00,,,0.00,Wunderground v.1.15,2013-11-14 20:25:00,
2013-11-14 15:27:00,55.2,19.9,30.29,WSW,242,3.0,12.0,25,0.00,,,0.00,Wunderground v.1.15,2013-11-14 20:27:00,
2013-11-14 15:29:00,55.1,20.8,30.29,SSW,198,3.0,3.0,26,0.00,,,0.00,Wunderground v.1.15,2013-11-14 20:29:00,
2013-11-14 15:33:00,55.1,20.8,30.29,South,169,3.0,12.0,26,0.00,,,0.00,Wunderground v.1.15,2013-11-14 20:33:00,
2013-11-14 15:36:00,55.3,21.0,30.29,South,187,3.0,12.0,26,0.00,,,0.00,Wunderground v.1.15,2013-11-14 20:36:00,
2013-11-14 15:37:00,55.4,20.1,30.29,South,173,3.0,12.0,25,0.00,,,0.00,Wunderground v.1.15,2013-11-14 20:37:00,
2013-11-14 15:40:00,55.4,20.1,30.29,South,169,2.0,12.0,25,0.00,,,0.00,Wunderground v.1.15,2013-11-14 20:40:00,
2013-11-14 15:42:00,55.5,21.1,30.29,WSW,252,2.0,12.0,26,0.00,,,0.00,Wunderground v.1.15,2013-11-14 20:42:00,
2013-11-14 15:44:00,55.4,20.1,30.29,WSW,242,3.0,12.0,25,0.00,,,0.00,Wunderground v.1.15,2013-11-14 20:44:00,
2013-11-14 15:49:00,55.5,20.2,30.29,WSW,243,3.0,12.0,25,0.00,,,0.00,Wunderground v.1.15,2013-11-14 20:49:00,
2013-11-14 15:51:00,55.6,21.2,30.29,SW,227,2.0,12.0,26,0.00,,,0.00,Wunderground v.1.15,2013-11-14 20:51:00,
2013-11-14 15:53:00,55.5,19.2,30.29,WSW,253,3.0,12.0,24,0.00,,,0.00,Wunderground v.1.15,2013-11-14 20:53:00,
2013-11-14 15:55:00,55.4,19.2,30.28,South,184,3.0,12.0,24,0.00,,,0.00,Wunderground v.1.15,2013-11-14 20:55:00,
2013-11-14 15:56:00,55.4,20.1,30.28,SE,141,3.0,12.0,25,0.00,,,0.00,Wunderground v.1.15,2013-11-14 20:56:00,
2013-11-14 15:58:00,55.4,19.2,30.28,SW,217,3.0,12.0,24,0.00,,,0.00,Wunderground v.1.15,2013-11-14 20:58:00,
2013-11-14 15:59:00,55.3,18.1,30.28,South,178,3.0,12.0,23,0.00,,,0.00,Wunderground v.1.15,2013-11-14 20:59:00,
2013-11-14 16:04:00,55.2,18.0,30.28,South,178,2.0,12.0,23,0.00,,,0.00,Wunderground v.1.15,2013-11-14 21:04:00,
2013-11-14 16:05:00,55.1,19.9,30.28,SW,218,3.0,12.0,25,0.00,,,0.00,Wunderground v.1.15,2013-11-14 21:05:00,
2013-11-14 16:06:00,55.1,18.9,30.28,SSW,204,3.0,12.0,24,0.00,,,0.00,Wunderground v.1.15,2013-11-14 21:06:00,
2013-11-14 16:08:00,55.1,19.9,30.28,South,179,3.0,12.0,25,0.00,,,0.00,Wunderground v.1.15,2013-11-14 21:08:00,
2013-11-14 16:12:00,55.0,18.8,30.28,SSW,210,3.0,12.0,24,0.00,,,0.00,Wunderground v.1.15,2013-11-14 21:12:00,
2013-11-14 16:13:00,55.0,19.8,30.28,SSW,210,3.0,12.0,25,0.00,,,0.00,Wunderground v.1.15,2013-11-14 21:13:00,
2013-11-14 16:14:00,55.0,19.8,30.28,SSW,210,3.0,12.0,25,0.00,,,0.00,Wunderground v.1.15,2013-11-14 21:14:00,
2013-11-14 16:16:00,55.0,18.8,30.28,SSW,193,3.0,12.0,24,0.00,,,0.00,Wunderground v.1.15,2013-11-14 21:16:00,
2013-11-14 16:18:00,55.0,19.8,30.28,SW,232,3.0,12.0,25,0.00,,,0.00,Wunderground v.1.15,2013-11-14 21:18:00,
2013-11-14 16:19:00,54.9,19.7,30.28,SSW,207,2.0,12.0,25,0.00,,,0.00,Wunderground v.1.15,2013-11-14 21:19:00,
2013-11-14 16:20:00,54.9,18.7,30.28,South,182,2.0,12.0,24,0.00,,,0.00,Wunderground v.1.15,2013-11-14 21:20:00,
2013-11-14 16:21:00,54.9,18.7,30.28,South,173,2.0,12.0,24,0.00,,,0.00,Wunderground v.1.15,2013-11-14 21:21:00,
2013-11-14 16:23:00,54.8,19.6,30.28,SSW,206,3.0,12.0,25,0.00,,,0.00,Wunderground v.1.15,2013-11-14 21:23:00,
2013-11-14 16:26:00,54.6,18.5,30.28,South,191,3.0,12.0,24,0.00,,,0.00,Wunderground v.1.15,2013-11-14 21:26:00,
2013-11-14 16:27:00,54.6,19.4,30.28,South,191,3.0,12.0,25,0.00,,,0.00,Wunderground v.1.15,2013-11-14 21:27:00,
2013-11-14 16:28:00,54.6,18.5,30.28,SSW,210,3.0,12.0,24,0.00,,,0.00,Wunderground v.1.15,2013-11-14 21:28:00,
2013-11-14 16:31:00,54.4,19.3,30.28,SW,226,3.0,12.0,25,0.00,,,0.00,Wunderground v.1.15,2013-11-14 21:31:00,
2013-11-14 16:33:00,54.2,19.1,30.28,SW,217,3.0,12.0,25,0.00,,,0.00,Wunderground v.1.15,2013-11-14 21:33:00,
2013-11-14 16:35:00,54.1,19.0,30.27,SSW,206,3.0,12.0,25,0.00,,,0.00,Wunderground v.1.15,2013-11-14 21:35:00,
2013-11-14 16:38:00,53.8,20.6,30.28,SSW,211,3.0,12.0,27,0.00,,,0.00,Wunderground v.1.15,2013-11-14 21:38:00,
2013-11-14 16:39:00,53.7,19.6,30.28,SW,230,3.0,8.0,26,0.00,,,0.00,Wunderground v.1.15,2013-11-14 21:39:00,
2013-11-14 16:40:00,53.6,20.4,30.28,SW,234,3.0,8.0,27,0.00,,,0.00,Wunderground v.1.15,2013-11-14 21:40:00,
2013-11-14 16:45:00,53.1,20.0,30.28,SSW,209,2.0,8.0,27,0.00,,,0.00,Wunderground v.1.15,2013-11-14 21:45:00,
2013-11-14 16:47:00,53.0,19.9,30.28,SSW,205,2.0,8.0,27,0.00,,,0.00,Wunderground v.1.15,2013-11-14 21:47:00,
2013-11-14 16:48:00,52.9,19.8,30.28,SSW,203,2.0,8.0,27,0.00,,,0.00,Wunderground v.1.15,2013-11-14 21:48:00,
2013-11-14 16:52:00,52.7,20.5,30.28,SSW,198,3.0,8.0,28,0.00,,,0.00,Wunderground v.1.15,2013-11-14 21:52:00,
2013-11-14 16:54:00,52.5,20.3,30.27,SW,229,3.0,8.0,28,0.00,,,0.00,Wunderground v.1.15,2013-11-14 21:54:00,
2013-11-14 16:55:00,52.4,20.2,30.27,SSW,205,2.0,8.0,28,0.00,,,0.00,Wunderground v.1.15,2013-11-14 21:55:00,
2013-11-14 16:56:00,52.4,20.2,30.27,SSW,196,3.0,8.0,28,0.00,,,0.00,Wunderground v.1.15,2013-11-14 21:56:00,
2013-11-14 17:00:00,52.1,20.8,30.27,SSW,195,2.0,8.0,29,0.00,,,0.00,Wunderground v.1.15,2013-11-14 22:00:00,
2013-11-14 17:02:00,51.9,20.6,30.27,SSW,196,2.0,8.0,29,0.00,,,0.00,Wunderground v.1.15,2013-11-14 22:02:00,
2013-11-14 17:03:00,51.8,20.5,30.27,SSW,196,2.0,8.0,29,0.00,,,0.00,Wunderground v.1.15,2013-11-14 22:03:00,
2013-11-14 17:05:00,51.8,20.5,30.27,SSW,196,2.0,8.0,29,0.00,,,0.00,Wunderground v.1.15,2013-11-14 22:05:00,
2013-11-14 17:07:00,51.6,20.3,30.27,SSW,196,2.0,8.0,29,0.00,,,0.00,Wunderground v.1.15,2013-11-14 22:07:00,
2013-11-14 17:08:00,51.6,20.3,30.27,SSW,196,2.0,8.0,29,0.00,,,0.00,Wunderground v.1.15,2013-11-14 22:08:00,
2013-11-14 17:09:00,51.5,21.0,30.27,SSW,196,1.0,1.0,30,0.00,,,0.00,Wunderground v.1.15,2013-11-14 22:09:00,
2013-11-14 17:10:00,51.4,21.0,30.27,SSW,196,1.0,8.0,30,0.00,,,0.00,Wunderground v.1.15,2013-11-14 22:10:00,
2013-11-14 17:15:00,51.0,21.4,30.28,SSW,196,1.0,8.0,31,0.00,,,0.00,Wunderground v.1.15,2013-11-14 22:15:00,
2013-11-14 17:17:00,50.9,22.1,30.28,SSW,196,1.0,8.0,32,0.00,,,0.00,Wunderground v.1.15,2013-11-14 22:17:00,
2013-11-14 17:18:00,50.8,22.0,30.28,South,173,1.0,8.0,32,0.00,,,0.00,Wunderground v.1.15,2013-11-14 22:18:00,
2013-11-14 17:22:00,50.4,21.6,30.27,South,175,2.0,8.0,32,0.00,,,0.00,Wunderground v.1.15,2013-11-14 22:22:00,
2013-11-14 17:26:00,50.0,22.0,30.27,South,175,2.0,8.0,33,0.00,,,0.00,Wunderground v.1.15,2013-11-14 22:26:00,
2013-11-14 17:28:00,49.9,21.9,30.27,South,169,2.0,8.0,33,0.00,,,0.00,Wunderground v.1.15,2013-11-14 22:28:00,
2013-11-14 17:30:00,49.9,21.2,30.27,South,169,1.0,8.0,32,0.00,,,0.00,Wunderground v.1.15,2013-11-14 22:30:00,
2013-11-14 17:33:00,49.7,21.0,30.27,South,169,1.0,8.0,32,0.00,,,0.00,Wunderground v.1.15,2013-11-14 22:33:00,
2013-11-14 17:35:00,49.7,21.0,30.27,South,169,1.0,8.0,32,0.00,,,0.00,Wunderground v.1.15,2013-11-14 22:35:00,
2013-11-14 17:36:00,49.7,21.0,30.26,South,169,1.0,8.0,32,0.00,,,0.00,Wunderground v.1.15,2013-11-14 22:36:00,
2013-11-14 17:37:00,49.6,20.9,30.26,South,175,1.0,8.0,32,0.00,,,0.00,Wunderground v.1.15,2013-11-14 22:37:00,
2013-11-14 17:42:00,49.4,21.5,30.27,South,175,0.0,3.0,33,0.00,,,0.00,Wunderground v.1.15,2013-11-14 22:42:00,
2013-11-14 17:44:00,49.4,21.5,30.27,South,175,0.0,3.0,33,0.00,,,0.00,Wunderground v.1.15,2013-11-14 22:44:00,
2013-11-14 17:47:00,49.1,21.2,30.27,South,190,1.0,3.0,33,0.00,,,0.00,Wunderground v.1.15,2013-11-14 22:47:00,
2013-11-14 17:50:00,49.0,21.1,30.27,South,187,1.0,3.0,33,0.00,,,0.00,Wunderground v.1.15,2013-11-14 22:50:00,
2013-11-14 17:51:00,48.9,21.7,30.27,South,187,1.0,3.0,34,0.00,,,0.00,Wunderground v.1.15,2013-11-14 22:51:00,
2013-11-14 17:53:00,48.7,21.5,30.27,SSW,197,1.0,3.0,34,0.00,,,0.00,Wunderground v.1.15,2013-11-14 22:53:00,
2013-11-14 17:54:00,48.7,21.5,30.27,SSW,197,1.0,3.0,34,0.00,,,0.00,Wunderground v.1.15,2013-11-14 22:54:00,
2013-11-14 17:56:00,48.6,21.5,30.27,SSW,197,1.0,3.0,34,0.00,,,0.00,Wunderground v.1.15,2013-11-14 22:56:00,
2013-11-14 17:58:00,48.4,21.3,30.27,SSW,197,1.0,1.0,34,0.00,,,0.00,Wunderground v.1.15,2013-11-14 22:58:00,
2013-11-14 18:01:00,48.2,21.8,30.27,SSW,197,1.0,3.0,35,0.00,,,0.00,Wunderground v.1.15,2013-11-14 23:01:00,
2013-11-14 18:02:00,48.1,21.7,30.27,SSW,197,1.0,3.0,35,0.00,,,0.00,Wunderground v.1.15,2013-11-14 23:02:00,
2013-11-14 18:04:00,48.0,21.6,30.27,SE,143,1.0,4.0,35,0.00,,,0.00,Wunderground v.1.15,2013-11-14 23:04:00,
2013-11-14 18:08:00,47.8,21.4,30.27,SSE,157,1.0,4.0,35,0.00,,,0.00,Wunderground v.1.15,2013-11-14 23:08:00,
2013-11-14 18:10:00,47.8,21.4,30.27,SSE,157,1.0,3.0,35,0.00,,,0.00,Wunderground v.1.15,2013-11-14 23:10:00,
2013-11-14 18:12:00,47.7,21.3,30.27,SSE,157,1.0,3.0,35,0.00,,,0.00,Wunderground v.1.15,2013-11-14 23:12:00,
2013-11-14 18:14:00,47.6,21.3,30.27,SSE,154,1.0,3.0,35,0.00,,,0.00,Wunderground v.1.15,2013-11-14 23:14:00,
2013-11-14 18:15:00,47.6,21.3,30.27,SSE,163,1.0,3.0,35,0.00,,,0.00,Wunderground v.1.15,2013-11-14 23:15:00,
2013-11-14 18:18:00,47.4,21.1,30.27,SSE,163,1.0,3.0,35,0.00,,,0.00,Wunderground v.1.15,2013-11-14 23:18:00,
2013-11-14 18:21:00,47.3,21.0,30.27,SSW,207,1.0,3.0,35,0.00,,,0.00,Wunderground v.1.15,2013-11-14 23:21:00,
2013-11-14 18:22:00,47.3,21.0,30.28,SSW,206,1.0,3.0,35,0.00,,,0.00,Wunderground v.1.15,2013-11-14 23:22:00,
2013-11-14 18:23:00,47.2,20.9,30.28,SSW,198,1.0,3.0,35,0.00,,,0.00,Wunderground v.1.15,2013-11-14 23:23:00,
2013-11-14 18:26:00,47.2,21.6,30.28,SSW,199,1.0,3.0,36,0.00,,,0.00,Wunderground v.1.15,2013-11-14 23:26:00,
2013-11-14 18:28:00,47.1,21.5,30.28,South,186,1.0,3.0,36,0.00,,,0.00,Wunderground v.1.15,2013-11-14 23:28:00,
2013-11-14 18:29:00,47.0,21.4,30.28,South,186,2.0,2.0,36,0.00,,,0.00,Wunderground v.1.15,2013-11-14 23:29:00,
2013-11-14 18:30:00,46.8,21.2,30.28,SSW,200,2.0,3.0,36,0.00,,,0.00,Wunderground v.1.15,2013-11-14 23:30:00,
2013-11-14 18:33:00,46.7,21.1,30.28,SSW,200,1.0,3.0,36,0.00,,,0.00,Wunderground v.1.15,2013-11-14 23:33:00,
2013-11-14 18:37:00,46.5,20.9,30.28,SSW,201,1.0,3.0,36,0.00,,,0.00,Wunderground v.1.15,2013-11-14 23:37:00,
2013-11-14 18:38:00,46.5,21.6,30.28,SSW,201,1.0,3.0,37,0.00,,,0.00,Wunderground v.1.15,2013-11-14 23:38:00,
2013-11-14 18:39:00,46.4,21.5,30.28,SSW,201,1.0,4.0,37,0.00,,,0.00,Wunderground v.1.15,2013-11-14 23:39:00,
2013-11-14 18:41:00,46.3,21.4,30.28,SSW,200,1.0,4.0,37,0.00,,,0.00,Wunderground v.1.15,2013-11-14 23:41:00,
2013-11-14 18:44:00,46.1,21.2,30.27,SSW,200,1.0,4.0,37,0.00,,,0.00,Wunderground v.1.15,2013-11-14 23:44:00,
2013-11-14 18:46:00,46.1,21.2,30.27,SSW,200,1.0,4.0,37,0.00,,,0.00,Wunderground v.1.15,2013-11-14 23:46:00,
2013-11-14 18:47:00,46.1,21.2,30.27,SSW,200,1.0,4.0,37,0.00,,,0.00,Wunderground v.1.15,2013-11-14 23:47:00,
2013-11-14 18:49:00,46.0,21.1,30.27,SSW,193,1.0,1.0,37,0.00,,,0.00,Wunderground v.1.15,2013-11-14 23:49:00,
2013-11-14 18:50:00,46.0,20.5,30.27,SSW,193,1.0,3.0,36,0.00,,,0.00,Wunderground v.1.15,2013-11-14 23:50:00,
2013-11-14 18:53:00,46.0,21.1,30.27,SSW,193,1.0,4.0,37,0.00,,,0.00,Wunderground v.1.15,2013-11-14 23:53:00,
2013-11-14 18:54:00,46.0,21.1,30.27,South,187,1.0,4.0,37,0.00,,,0.00,Wunderground v.1.15,2013-11-14 23:54:00,
2013-11-14 18:56:00,45.9,21.1,30.27,SSW,193,1.0,4.0,37,0.00,,,0.00,Wunderground v.1.15,2013-11-14 23:56:00,
2013-11-14 19:01:00,45.8,21.0,30.27,South,179,1.0,4.0,37,0.00,,,0.00,Wunderground v.1.15,2013-11-15 00:01:00,
2013-11-14 19:03:00,45.8,21.6,30.27,South,180,1.0,4.0,38,0.00,,,0.00,Wunderground v.1.15,2013-11-15 00:03:00,
2013-11-14 19:05:00,45.8,21.0,30.27,South,180,1.0,4.0,37,0.00,,,0.00,Wunderground v.1.15,2013-11-15 00:05:00,
2013-11-14 19:09:00,45.7,20.9,30.27,South,180,1.0,4.0,37,0.00,,,0.00,Wunderground v.1.15,2013-11-15 00:09:00,
2013-11-14 19:10:00,45.7,20.9,30.27,SSE,165,1.0,4.0,37,0.00,,,0.00,Wunderground v.1.15,2013-11-15 00:10:00,
2013-11-14 19:11:00,45.6,20.8,30.27,SSE,165,1.0,4.0,37,0.00,,,0.00,Wunderground v.1.15,2013-11-15 00:11:00,
2013-11-14 19:14:00,45.6,20.8,30.27,SSE,165,1.0,4.0,37,0.00,,,0.00,Wunderground v.1.15,2013-11-15 00:14:00,
2013-11-14 19:16:00,45.6,20.8,30.26,SSE,159,1.0,4.0,37,0.00,,,0.00,Wunderground v.1.15,2013-11-15 00:16:00,
2013-11-14 19:17:00,45.5,20.7,30.26,SE,125,1.0,4.0,37,0.00,,,0.00,Wunderground v.1.15,2013-11-15 00:17:00,
2013-11-14 19:19:00,45.6,20.8,30.26,SE,126,1.0,4.0,37,0.00,,,0.00,Wunderground v.1.15,2013-11-15 00:19:00,
2013-11-14 19:22:00,45.5,20.7,30.26,SSE,167,1.0,4.0,37,0.00,,,0.00,Wunderground v.1.15,2013-11-15 00:22:00,
2013-11-14 19:24:00,45.5,20.1,30.26,SSE,167,1.0,4.0,36,0.00,,,0.00,Wunderground v.1.15,2013-11-15 00:24:00,
2013-11-14 19:26:00,45.5,20.1,30.27,South,175,1.0,4.0,36,0.00,,,0.00,Wunderground v.1.15,2013-11-15 00:26:00,
2013-11-14 19:27:00,45.6,20.1,30.27,South,178,1.0,7.0,36,0.00,,,0.00,Wunderground v.1.15,2013-11-15 00:27:00,
2013-11-14 19:29:00,45.6,21.4,30.26,SE,137,1.0,4.0,38,0.00,,,0.00,Wunderground v.1.15,2013-11-15 00:29:00,
2013-11-14 19:31:00,45.6,20.8,30.27,SE,126,1.0,4.0,37,0.00,,,0.00,Wunderground v.1.15,2013-11-15 00:31:00,
2013-11-14 19:35:00,45.6,21.4,30.27,South,189,1.0,4.0,38,0.00,,,0.00,Wunderground v.1.15,2013-11-15 00:35:00,
2013-11-14 19:38:00,45.6,21.4,30.26,SSW,192,1.0,4.0,38,0.00,,,0.00,Wunderground v.1.15,2013-11-15 00:38:00,
2013-11-14 19:39:00,45.6,21.4,30.26,SSW,194,1.0,7.0,38,0.00,,,0.00,Wunderground v.1.15,2013-11-15 00:39:00,
2013-11-14 19:42:00,45.5,21.3,30.26,SSW,213,2.0,7.0,38,0.00,,,0.00,Wunderground v.1.15,2013-11-15 00:42:00,
2013-11-14 19:43:00,45.5,21.3,30.26,SSW,213,2.0,7.0,38,0.00,,,0.00,Wunderground v.1.15,2013-11-15 00:43:00,
2013-11-14 19:44:00,45.5,21.3,30.26,SSW,213,1.0,7.0,38,0.00,,,0.00,Wunderground v.1.15,2013-11-15 00:44:00,
2013-11-14 19:49:00,45.4,22.5,30.26,SSW,201,1.0,7.0,40,0.00,,,0.00,Wunderground v.1.15,2013-11-15 00:49:00,
2013-11-14 19:51:00,45.3,21.8,30.26,South,190,1.0,7.0,39,0.00,,,0.00,Wunderground v.1.15,2013-11-15 00:51:00,
2013-11-14 19:53:00,45.3,21.8,30.26,SW,225,1.0,7.0,39,0.00,,,0.00,Wunderground v.1.15,2013-11-15 00:53:00,
2013-11-14 19:57:00,45.2,22.3,30.26,SSE,157,1.0,7.0,40,0.00,,,0.00,Wunderground v.1.15,2013-11-15 00:57:00,
2013-11-14 19:58:00,45.2,22.3,30.26,SSE,152,1.0,7.0,40,0.00,,,0.00,Wunderground v.1.15,2013-11-15 00:58:00,
2013-11-14 20:01:00,45.1,22.8,30.26,SSW,192,1.0,7.0,41,0.00,,,0.00,Wunderground v.1.15,2013-11-15 01:01:00,
2013-11-14 20:03:00,45.1,22.8,30.26,SSW,198,1.0,7.0,41,0.00,,,0.00,Wunderground v.1.15,2013-11-15 01:03:00,
2013-11-14 20:05:00,45.0,22.7,30.26,SSW,198,1.0,7.0,41,0.00,,,0.00,Wunderground v.1.15,2013-11-15 01:05:00,
2013-11-14 20:10:00,45.2,22.9,30.26,South,188,2.0,7.0,41,0.00,,,0.00,Wunderground v.1.15,2013-11-15 01:10:00,
2013-11-14 20:14:00,45.3,22.4,30.26,SSW,195,2.0,7.0,40,0.00,,,0.00,Wunderground v.1.15,2013-11-15 01:14:00,
2013-11-14 20:16:00,45.4,23.0,30.26,SSW,203,2.0,7.0,41,0.00,,,0.00,Wunderground v.1.15,2013-11-15 01:16:00,
2013-11-14 20:17:00,45.4,23.0,30.26,SSW,203,2.0,7.0,41,0.00,,,0.00,Wunderground v.1.15,2013-11-15 01:17:00,
2013-11-14 20:19:00,45.4,22.5,30.26,South,183,2.0,3.0,40,0.00,,,0.00,Wunderground v.1.15,2013-11-15 01:19:00,
2013-11-14 20:21:00,45.4,22.5,30.26,South,183,2.0,7.0,40,0.00,,,0.00,Wunderground v.1.15,2013-11-15 01:21:00,
2013-11-14 20:22:00,45.4,22.5,30.26,South,183,2.0,7.0,40,0.00,,,0.00,Wunderground v.1.15,2013-11-15 01:22:00,
2013-11-14 20:24:00,45.4,23.0,30.26,South,182,2.0,7.0,41,0.00,,,0.00,Wunderground v.1.15,2013-11-15 01:24:00,
2013-11-14 20:26:00,45.4,22.5,30.26,South,181,2.0,7.0,40,0.00,,,0.00,Wunderground v.1.15,2013-11-15 01:26:00,
2013-11-14 20:27:00,45.4,22.5,30.26,South,175,2.0,7.0,40,0.00,,,0.00,Wunderground v.1.15,2013-11-15 01:27:00,
2013-11-14 20:29:00,45.4,23.0,30.26,South,175,2.0,2.0,41,0.00,,,0.00,Wunderground v.1.15,2013-11-15 01:29:00,
2013-11-14 20:30:00,45.4,23.0,30.26,South,175,2.0,7.0,41,0.00,,,0.00,Wunderground v.1.15,2013-11-15 01:30:00,
2013-11-14 20:32:00,45.4,23.0,30.26,South,184,2.0,7.0,41,0.00,,,0.00,Wunderground v.1.15,2013-11-15 01:32:00,
2013-11-14 20:34:00,45.4,22.5,30.25,South,191,2.0,7.0,40,0.00,,,0.00,Wunderground v.1.15,2013-11-15 01:34:00,
2013-11-14 20:37:00,45.5,23.7,30.26,SSW,213,2.0,7.0,42,0.00,,,0.00,Wunderground v.1.15,2013-11-15 01:37:00,
2013-11-14 20:38:00,45.5,23.1,30.26,SSW,211,2.0,7.0,41,0.00,,,0.00,Wunderground v.1.15,2013-11-15 01:38:00,
2013-11-14 20:39:00,45.5,22.5,30.25,SSW,198,2.0,5.0,40,0.00,,,0.00,Wunderground v.1.15,2013-11-15 01:39:00,
2013-11-14 20:40:00,45.5,22.5,30.26,South,173,2.0,5.0,40,0.00,,,0.00,Wunderground v.1.15,2013-11-15 01:40:00,
2013-11-14 20:41:00,45.5,22.5,30.26,SSW,202,2.0,5.0,40,0.00,,,0.00,Wunderground v.1.15,2013-11-15 01:41:00,
2013-11-14 20:46:00,45.6,22.6,30.26,South,184,2.0,5.0,40,0.00,,,0.00,Wunderground v.1.15,2013-11-15 01:46:00,
2013-11-14 20:50:00,45.7,22.7,30.25,SSW,205,2.0,5.0,40,0.00,,,0.00,Wunderground v.1.15,2013-11-15 01:50:00,
2013-11-14 20:51:00,45.8,22.2,30.26,South,187,2.0,5.0,39,0.00,,,0.00,Wunderground v.1.15,2013-11-15 01:51:00,
2013-11-14 20:54:00,45.8,22.8,30.26,SW,219,2.0,5.0,40,0.00,,,0.00,Wunderground v.1.15,2013-11-15 01:54:00,
2013-11-14 20:56:00,45.9,22.3,30.26,SSW,213,2.0,5.0,39,0.00,,,0.00,Wunderground v.1.15,2013-11-15 01:56:00,
2013-11-14 20:58:00,45.9,22.3,30.26,SW,223,2.0,5.0,39,0.00,,,0.00,Wunderground v.1.15,2013-11-15 01:58:00,
2013-11-14 20:59:00,45.9,22.3,30.26,SSE,163,2.0,5.0,39,0.00,,,0.00,Wunderground v.1.15,2013-11-15 01:59:00,
2013-11-14 21:01:00,45.9,22.3,30.26,South,180,2.0,5.0,39,0.00,,,0.00,Wunderground v.1.15,2013-11-15 02:01:00,
2013-11-14 21:03:00,45.9,21.7,30.26,SE,143,2.0,5.0,38,0.00,,,0.00,Wunderground v.1.15,2013-11-15 02:03:00,
2013-11-14 21:05:00,45.9,22.3,30.26,SSW,206,2.0,5.0,39,0.00,,,0.00,Wunderground v.1.15,2013-11-15 02:05:00,
2013-11-14 21:06:00,45.9,21.7,30.26,SSE,150,2.0,5.0,38,0.00,,,0.00,Wunderground v.1.15,2013-11-15 02:06:00,
2013-11-14 21:08:00,45.9,22.3,30.26,SSW,192,2.0,5.0,39,0.00,,,0.00,Wunderground v.1.15,2013-11-15 02:08:00,
2013-11-14 21:10:00,45.9,21.7,30.26,SSW,208,2.0,5.0,38,0.00,,,0.00,Wunderground v.1.15,2013-11-15 02:10:00,
2013-11-14 21:12:00,45.9,21.7,30.26,SSW,208,2.0,5.0,38,0.00,,,0.00,Wunderground v.1.15,2013-11-15 02:12:00,
2013-11-14 21:14:00,45.9,21.7,30.26,SSW,202,2.0,5.0,38,0.00,,,0.00,Wunderground v.1.15,2013-11-15 02:14:00,
2013-11-14 21:17:00,45.9,21.7,30.26,SSW,193,2.0,5.0,38,0.00,,,0.00,Wunderground v.1.15,2013-11-15 02:17:00,
2013-11-14 21:20:00,46.1,22.5,30.26,SSW,194,2.0,5.0,39,0.00,,,0.00,Wunderground v.1.15,2013-11-15 02:20:00,
2013-11-14 21:24:00,46.0,22.4,30.26,SSW,207,2.0,5.0,39,0.00,,,0.00,Wunderground v.1.15,2013-11-15 02:24:00,
2013-11-14 21:28:00,46.1,21.9,30.26,South,188,2.0,5.0,38,0.00,,,0.00,Wunderground v.1.15,2013-11-15 02:28:00,
2013-11-14 21:29:00,46.1,21.9,30.26,SSW,193,2.0,2.0,38,0.00,,,0.00,Wunderground v.1.15,2013-11-15 02:29:00,
2013-11-14 21:31:00,46.0,21.8,30.26,SSW,192,1.0,5.0,38,0.00,,,0.00,Wunderground v.1.15,2013-11-15 02:31:00,
2013-11-14 21:32:00,46.0,22.4,30.26,South,184,1.0,5.0,39,0.00,,,0.00,Wunderground v.1.15,2013-11-15 02:32:00,
2013-11-14 21:34:00,45.9,21.7,30.26,South,184,1.0,5.0,38,0.00,,,0.00,Wunderground v.1.15,2013-11-15 02:34:00,
2013-11-14 21:37:00,45.7,21.5,30.25,SW,221,1.0,5.0,38,0.00,,,0.00,Wunderground v.1.15,2013-11-15 02:37:00,
2013-11-14 21:39:00,45.7,22.1,30.26,SW,221,1.0,1.0,39,0.00,,,0.00,Wunderground v.1.15,2013-11-15 02:39:00,
2013-11-14 21:40:00,45.6,22.0,30.25,SW,221,1.0,7.0,39,0.00,,,0.00,Wunderground v.1.15,2013-11-15 02:40:00,
2013-11-14 21:41:00,45.7,21.5,30.25,SSW,211,1.0,7.0,38,0.00,,,0.00,Wunderground v.1.15,2013-11-15 02:41:00,
2013-11-14 21:44:00,45.6,22.0,30.26,SSW,205,1.0,7.0,39,0.00,,,0.00,Wunderground v.1.15,2013-11-15 02:44:00,
2013-11-14 21:46:00,45.6,22.0,30.26,SSW,205,1.0,7.0,39,0.00,,,0.00,Wunderground v.1.15,2013-11-15 02:46:00,
2013-11-14 21:47:00,45.5,21.9,30.26,SSW,205,1.0,7.0,39,0.00,,,0.00,Wunderground v.1.15,2013-11-15 02:47:00,
2013-11-14 21:51:00,45.4,21.9,30.26,SW,217,1.0,7.0,39,0.00,,,0.00,Wunderground v.1.15,2013-11-15 02:51:00,
2013-11-14 21:53:00,45.3,21.8,30.26,SW,217,1.0,7.0,39,0.00,,,0.00,Wunderground v.1.15,2013-11-15 02:53:00,
2013-11-14 21:57:00,45.3,21.8,30.26,SSW,206,2.0,7.0,39,0.00,,,0.00,Wunderground v.1.15,2013-11-15 02:57:00,
2013-11-14 21:59:00,45.3,21.8,30.26,SSW,206,1.0,1.0,39,0.00,,,0.00,Wunderground v.1.15,2013-11-15 02:59:00,
2013-11-14 22:03:00,45.3,21.8,30.26,SSW,201,1.0,7.0,39,0.00,,,0.00,Wunderground v.1.15,2013-11-15 03:03:00,
2013-11-14 22:04:00,45.2,21.7,30.26,SSW,201,1.0,7.0,39,0.00,,,0.00,Wunderground v.1.15,2013-11-15 03:04:00,
2013-11-14 22:07:00,45.0,21.5,30.26,SSW,201,1.0,7.0,39,0.00,,,0.00,Wunderground v.1.15,2013-11-15 03:07:00,
2013-11-14 22:10:00,45.0,21.5,30.26,SSW,207,1.0,7.0,39,0.00,,,0.00,Wunderground v.1.15,2013-11-15 03:10:00,
2013-11-14 22:11:00,44.9,21.4,30.26,SSW,207,1.0,7.0,39,0.00,,,0.00,Wunderground v.1.15,2013-11-15 03:11:00,
2013-11-14 22:14:00,44.9,22.0,30.26,SSW,211,1.0,7.0,40,0.00,,,0.00,Wunderground v.1.15,2013-11-15 03:14:00,
2013-11-14 22:15:00,44.8,22.5,30.26,SSW,211,1.0,7.0,41,0.00,,,0.00,Wunderground v.1.15,2013-11-15 03:15:00,
2013-11-14 22:17:00,44.7,21.8,30.26,SSW,207,1.0,7.0,40,0.00,,,0.00,Wunderground v.1.15,2013-11-15 03:17:00,
2013-11-14 22:18:00,44.6,22.3,30.26,SSW,207,1.0,7.0,41,0.00,,,0.00,Wunderground v.1.15,2013-11-15 03:18:00,
2013-11-14 22:20:00,44.5,21.6,30.26,SSW,204,1.0,7.0,40,0.00,,,0.00,Wunderground v.1.15,2013-11-15 03:20:00,
2013-11-14 22:22:00,44.5,21.6,30.26,SSW,204,1.0,7.0,40,0.00,,,0.00,Wunderground v.1.15,2013-11-15 03:22:00,
2013-11-14 22:24:00,44.4,22.1,30.26,South,190,1.0,7.0,41,0.00,,,0.00,Wunderground v.1.15,2013-11-15 03:24:00,
2013-11-14 22:26:00,44.3,22.1,30.26,SSW,200,1.0,7.0,41,0.00,,,0.00,Wunderground v.1.15,2013-11-15 03:26:00,
2013-11-14 22:27:00,44.3,22.1,30.26,South,181,1.0,7.0,41,0.00,,,0.00,Wunderground v.1.15,2013-11-15 03:27:00,
2013-11-14 22:30:00,44.3,22.1,30.26,SSW,207,2.0,7.0,41,0.00,,,0.00,Wunderground v.1.15,2013-11-15 03:30:00,
2013-11-14 22:32:00,44.3,22.1,30.26,SSW,207,2.0,7.0,41,0.00,,,0.00,Wunderground v.1.15,2013-11-15 03:32:00,
2013-11-14 22:33:00,44.3,22.1,30.27,SW,225,1.0,7.0,41,0.00,,,0.00,Wunderground v.1.15,2013-11-15 03:33:00,
2013-11-14 22:36:00,44.2,22.0,30.26,SSW,205,1.0,7.0,41,0.00,,,0.00,Wunderground v.1.15,2013-11-15 03:36:00,
2013-11-14 22:40:00,44.1,21.9,30.26,SSW,192,2.0,7.0,41,0.00,,,0.00,Wunderground v.1.15,2013-11-15 03:40:00,
2013-11-14 22:42:00,44.2,22.0,30.26,SSW,211,2.0,7.0,41,0.00,,,0.00,Wunderground v.1.15,2013-11-15 03:42:00,
2013-11-14 22:44:00,44.2,22.0,30.26,SW,225,2.0,7.0,41,0.00,,,0.00,Wunderground v.1.15,2013-11-15 03:44:00,
2013-11-14 22:45:00,44.2,22.0,30.26,SSW,208,2.0,7.0,41,0.00,,,0.00,Wunderground v.1.15,2013-11-15 03:45:00,
2013-11-14 22:46:00,44.2,22.0,30.26,SSW,193,2.0,7.0,41,0.00,,,0.00,Wunderground v.1.15,2013-11-15 03:46:00,
2013-11-14 22:48:00,44.1,21.9,30.26,South,190,2.0,7.0,41,0.00,,,0.00,Wunderground v.1.15,2013-11-15 03:48:00,
2013-11-14 22:49:00,44.2,22.5,30.26,South,191,2.0,7.0,42,0.00,,,0.00,Wunderground v.1.15,2013-11-15 03:49:00,
2013-11-14 22:51:00,44.1,22.4,30.26,SW,214,2.0,7.0,42,0.00,,,0.00,Wunderground v.1.15,2013-11-15 03:51:00,
2013-11-14 22:53:00,44.1,22.4,30.26,SW,214,2.0,7.0,42,0.00,,,0.00,Wunderground v.1.15,2013-11-15 03:53:00,
2013-11-14 22:54:00,44.0,22.4,30.26,SSW,201,2.0,7.0,42,0.00,,,0.00,Wunderground v.1.15,2013-11-15 03:54:00,
2013-11-14 22:56:00,44.0,22.4,30.26,SSW,202,2.0,7.0,42,0.00,,,0.00,Wunderground v.1.15,2013-11-15 03:56:00,
2013-11-14 23:00:00,43.9,22.3,30.26,SSW,196,2.0,7.0,42,0.00,,,0.00,Wunderground v.1.15,2013-11-15 04:00:00,
2013-11-14 23:01:00,43.9,22.3,30.26,SSW,196,2.0,7.0,42,0.00,,,0.00,Wunderground v.1.15,2013-11-15 04:01:00,
2013-11-14 23:04:00,43.8,22.2,30.25,South,186,2.0,7.0,42,0.00,,,0.00,Wunderground v.1.15,2013-11-15 04:04:00,
2013-11-14 23:06:00,43.8,22.2,30.25,South,186,2.0,7.0,42,0.00,,,0.00,Wunderground v.1.15,2013-11-15 04:06:00,
2013-11-14 23:08:00,43.8,22.2,30.25,SSW,200,2.0,7.0,42,0.00,,,0.00,Wunderground v.1.15,2013-11-15 04:08:00,
2013-11-14 23:11:00,43.8,22.2,30.25,SSW,204,2.0,7.0,42,0.00,,,0.00,Wunderground v.1.15,2013-11-15 04:11:00,
2013-11-14 23:13:00,43.7,22.1,30.25,SSW,204,2.0,7.0,42,0.00,,,0.00,Wunderground v.1.15,2013-11-15 04:13:00,
2013-11-14 23:15:00,43.7,22.1,30.25,SW,235,2.0,7.0,42,0.00,,,0.00,Wunderground v.1.15,2013-11-15 04:15:00,
2013-11-14 23:17:00,43.7,22.1,30.25,SSW,196,2.0,7.0,42,0.00,,,0.00,Wunderground v.1.15,2013-11-15 04:17:00,
2013-11-14 23:20:00,43.6,22.0,30.25,SSW,211,2.0,7.0,42,0.00,,,0.00,Wunderground v.1.15,2013-11-15 04:20:00,
2013-11-14 23:24:00,43.6,22.0,30.25,South,189,1.0,7.0,42,0.00,,,0.00,Wunderground v.1.15,2013-11-15 04:24:00,
2013-11-14 23:27:00,43.4,21.8,30.25,SSW,198,2.0,7.0,42,0.00,,,0.00,Wunderground v.1.15,2013-11-15 04:27:00,
2013-11-14 23:30:00,43.4,22.4,30.25,SSW,209,1.0,7.0,43,0.00,,,0.00,Wunderground v.1.15,2013-11-15 04:30:00,
2013-11-14 23:31:00,43.3,22.3,30.24,SE,140,2.0,7.0,43,0.00,,,0.00,Wunderground v.1.15,2013-11-15 04:31:00,
2013-11-14 23:32:00,43.3,22.3,30.24,SSW,213,2.0,7.0,43,0.00,,,0.00,Wunderground v.1.15,2013-11-15 04:32:00,
2013-11-14 23:33:00,43.2,22.2,30.24,SSW,200,2.0,7.0,43,0.00,,,0.00,Wunderground v.1.15,2013-11-15 04:33:00,
2013-11-14 23:35:00,43.2,22.2,30.24,SSW,209,2.0,7.0,43,0.00,,,0.00,Wunderground v.1.15,2013-11-15 04:35:00,
2013-11-14 23:37:00,43.1,22.1,30.24,South,187,2.0,7.0,43,0.00,,,0.00,Wunderground v.1.15,2013-11-15 04:37:00,
2013-11-14 23:39:00,43.1,22.1,30.24,SW,219,2.0,7.0,43,0.00,,,0.00,Wunderground v.1.15,2013-11-15 04:39:00,
2013-11-14 23:42:00,43.0,22.5,30.24,South,186,2.0,7.0,44,0.00,,,0.00,Wunderground v.1.15,2013-11-15 04:42:00,
2013-11-14 23:44:00,42.8,21.8,30.24,SSW,201,2.0,7.0,43,0.00,,,0.00,Wunderground v.1.15,2013-11-15 04:44:00,
2013-11-14 23:47:00,42.8,22.4,30.24,SSW,195,2.0,7.0,44,0.00,,,0.00,Wunderground v.1.15,2013-11-15 04:47:00,
2013-11-14 23:50:00,42.7,22.8,30.24,SSW,213,2.0,7.0,45,0.00,,,0.00,Wunderground v.1.15,2013-11-15 04:50:00,
2013-11-14 23:52:00,42.7,22.3,30.23,South,175,2.0,7.0,44,0.00,,,0.00,Wunderground v.1.15,2013-11-15 04:52:00,
2013-11-14 23:53:00,42.7,22.3,30.23,South,190,2.0,7.0,44,0.00,,,0.00,Wunderground v.1.15,2013-11-15 04:53:00,
2013-11-14 23:55:00,42.6,22.7,30.23,South,178,2.0,7.0,45,0.00,,,0.00,Wunderground v.1.15,2013-11-15 04:55:00,
2013-11-14 23:57:00,42.6,22.2,30.23,South,186,2.0,7.0,44,0.00,,,0.00,Wunderground v.1.15,2013-11-15 04:57:00,